Provisional Data: Susquehanna River near Binghamton, NY


Please select a monitoring station.
Please select start date.
Please select start date.

Toggle Unit: C/F Toggle Unit: C/F
Sample Time Temperature (C) Temperature (F) Specific Conductivity (mS/cm) pH   Turbidity (NTU+) DO (mg/L)
6/22/2021 12:00:00 AM 7.5533 6.9871
6/22/2021 12:15:00 AM 7.5259 7.5014
6/22/2021 12:30:00 AM 7.5032 7.864
6/22/2021 12:45:00 AM 7.4824 8.7549
6/22/2021 1:00:00 AM 7.4566 12.1048
6/22/2021 1:15:00 AM 7.4267 9.2838
6/22/2021 1:30:00 AM 7.3983 8.3052
6/22/2021 1:45:00 AM 7.372 8.48
6/22/2021 2:00:00 AM 7.3458 9.6024
6/22/2021 2:15:00 AM 7.3198 10.1297
6/22/2021 2:30:00 AM 7.2967 10.1159
6/22/2021 2:45:00 AM 7.2856 10.1
6/22/2021 3:00:00 AM 7.2556 10.4378
6/22/2021 3:15:00 AM 7.2295 11.3962
6/22/2021 3:30:00 AM 7.2037 10.8661
6/22/2021 3:45:00 AM 7.1774 10.9872
6/22/2021 4:00:00 AM 7.1546 11.0837
6/22/2021 4:15:00 AM 7.1312 10.9416
6/22/2021 4:30:00 AM 7.107 11.3015
6/22/2021 4:45:00 AM 7.0838 11.2149
6/22/2021 5:00:00 AM 7.0694 10.9165
6/22/2021 5:15:00 AM 7.0578 11.5404
6/22/2021 5:30:00 AM 7.0461 11.2902
6/22/2021 5:45:00 AM 7.0378 11.2
6/22/2021 6:00:00 AM 7.0183 9.2846
6/22/2021 6:15:00 AM 7.0064 8.4139
6/22/2021 6:30:00 AM 6.9888 8.7768
6/22/2021 6:45:00 AM 6.9755 9.9142
6/22/2021 7:00:00 AM 6.9687 9.2249
6/22/2021 7:15:00 AM 6.9617 8.3805
6/22/2021 7:30:00 AM 6.953 9.2771
6/22/2021 7:45:00 AM 6.9458 9.0128
6/22/2021 8:00:00 AM 6.9421 7.6147
6/22/2021 8:15:00 AM 6.9417 6.7446
6/22/2021 8:30:00 AM 6.9449 6.954
6/22/2021 8:45:00 AM 6.944 6.2
6/22/2021 9:00:00 AM 6.9494 5.4753
6/22/2021 9:15:00 AM 6.9514 6.6023
6/22/2021 9:30:00 AM 6.9535 7.0472
6/22/2021 9:45:00 AM 6.9562 5.4619
6/22/2021 10:00:00 AM 6.9629 4.8993
6/22/2021 10:15:00 AM 6.9663 4.8399
6/22/2021 10:30:00 AM 6.9699 4.7334
6/22/2021 10:45:00 AM 6.975 5.0999
6/22/2021 11:00:00 AM 6.9821 5.3274
6/22/2021 11:15:00 AM 6.9915 4.9014
6/22/2021 11:30:00 AM 7.0022 4.6784
6/22/2021 11:45:00 AM 7.0084 4.6
6/22/2021 12:00:00 PM 7.0234 4.5619
6/22/2021 12:15:00 PM 7.0358 4.5395
6/22/2021 12:30:00 PM 7.0497 4.498
6/22/2021 12:45:00 PM 7.0658 4.6287
6/22/2021 1:00:00 PM 7.0796 4.3791
6/22/2021 1:15:00 PM 7.0902 4.3558
6/22/2021 1:30:00 PM 7.1008 4.4433
6/22/2021 1:45:00 PM 7.1096 4.2999
6/22/2021 2:00:00 PM 7.1198 4.308
6/22/2021 2:15:00 PM 7.133 4.356
6/22/2021 2:30:00 PM 7.143 4.3338
6/22/2021 2:45:00 PM 7.1517 4.4745
6/22/2021 3:00:00 PM 7.161 4.2794
6/22/2021 3:15:00 PM 7.1692 4.4455
6/22/2021 3:30:00 PM 7.1772 4.338
6/22/2021 3:45:00 PM 7.183 5.0671
6/22/2021 4:00:00 PM 7.1894 6.7505
6/22/2021 4:15:00 PM 7.1928 12.3083
6/22/2021 4:30:00 PM 7.1972 9.8583
6/22/2021 4:45:00 PM 7.2128 5.542
6/22/2021 5:00:00 PM 7.2278 4.7691
6/22/2021 5:15:00 PM 7.2434 4.7742
6/22/2021 5:30:00 PM 7.2639 4.7142
6/22/2021 5:45:00 PM 7.2758 4.6
6/22/2021 6:00:00 PM 7.3003 4.6354
6/22/2021 6:15:00 PM 7.3166 4.6771
6/22/2021 6:30:00 PM 7.3322 4.5816
6/22/2021 6:45:00 PM 7.3486 4.5888
6/22/2021 7:00:00 PM 7.3591 4.4569
6/22/2021 7:15:00 PM 7.3683 4.4199
6/22/2021 7:30:00 PM 7.3766 4.4355
6/22/2021 7:45:00 PM 7.3844 4.4707
6/22/2021 8:00:00 PM 7.3907 4.4048
6/22/2021 8:15:00 PM 7.336 7.5364
6/22/2021 8:30:00 PM 7.3619 6.8643
6/22/2021 8:45:00 PM 7.3836 6.3
6/22/2021 9:00:00 PM 7.4006 6.2631
6/22/2021 9:15:00 PM 7.3954 6.3176
6/22/2021 9:30:00 PM 7.3912 6.1957
6/22/2021 9:45:00 PM 7.3846 6.1806
6/22/2021 10:00:00 PM 7.3697 6.2724
6/22/2021 10:15:00 PM 7.3556 6.1958
6/22/2021 10:30:00 PM 7.3375 6.2047
6/22/2021 10:45:00 PM 7.3211 6.1717
6/22/2021 11:00:00 PM 7.3113 6.2261
6/22/2021 11:15:00 PM 7.3038 6.1954
6/22/2021 11:30:00 PM 7.295 6.2522
6/22/2021 11:45:00 PM 7.2912 6.3
6/23/2021 12:00:00 AM 7.2797 6.165
6/23/2021 12:15:00 AM 7.2661 6.3385
6/23/2021 12:30:00 AM 7.2481 6.3644
6/23/2021 12:45:00 AM 7.2336 6.2929
6/23/2021 1:00:00 AM 7.2223 6.2842
6/23/2021 1:15:00 AM 7.2126 6.072
6/23/2021 1:30:00 AM 7.2011 6.0312
6/23/2021 1:45:00 AM 7.1899 6.0999
6/23/2021 2:00:00 AM 7.1789 6.145
6/23/2021 2:15:00 AM 7.1703 6.1977
6/23/2021 2:30:00 AM 7.1625 6.1462
6/23/2021 2:45:00 AM 7.1596 6.2
6/23/2021 3:00:00 AM 7.1463 6.2675
6/23/2021 3:15:00 AM 7.1308 6.2514
6/23/2021 3:30:00 AM 7.1189 6.2627
6/23/2021 3:45:00 AM 7.1096 6.2509
6/23/2021 4:00:00 AM 7.0995 6.2609
6/23/2021 4:15:00 AM 7.0923 6.3262
6/23/2021 4:30:00 AM 7.0849 6.3966
6/23/2021 4:45:00 AM 7.0775 6.5678
6/23/2021 5:00:00 AM 7.0699 6.6386
6/23/2021 5:15:00 AM 7.0593 6.3834
6/23/2021 5:30:00 AM 7.0498 6.0513
6/23/2021 5:45:00 AM 7.0448 5.9
6/23/2021 6:00:00 AM 7.0283 5.0521
6/23/2021 6:15:00 AM 7.0242 4.9186
6/23/2021 6:30:00 AM 7.0183 4.7581
6/23/2021 6:45:00 AM 7.0133 4.722
6/23/2021 7:00:00 AM 7.0085 4.6806
6/23/2021 7:15:00 AM 7.0046 4.6574
6/23/2021 7:30:00 AM 7.0027 4.5498
6/23/2021 7:45:00 AM 7.0006 4.5329
6/23/2021 8:00:00 AM 6.9994 4.4673
6/23/2021 8:15:00 AM 6.9998 4.7871
6/23/2021 8:30:00 AM 6.9991 4.3609
6/23/2021 8:45:00 AM 7 4.5
6/23/2021 9:00:00 AM 6.9993 4.582
6/23/2021 9:15:00 AM 6.9998 4.4873
6/23/2021 9:30:00 AM 7.0029 4.3357
6/23/2021 9:45:00 AM 7.0074 4.261
6/23/2021 10:00:00 AM 7.0157 4.1708
6/23/2021 10:15:00 AM 7.0216 4.1571
6/23/2021 10:30:00 AM 7.0263 4.1661
6/23/2021 10:45:00 AM 7.0329 4.4113
6/23/2021 11:00:00 AM 7.0429 4.4722
6/23/2021 11:15:00 AM 7.0553 4.3245
6/23/2021 11:30:00 AM 7.0694 4.1636
6/23/2021 11:45:00 AM 7.0742 4.2
6/23/2021 12:00:00 PM 7.0939 4.1403
6/23/2021 12:15:00 PM 7.1091 4.1746
6/23/2021 12:30:00 PM 7.1222 4.147
6/23/2021 12:45:00 PM 7.1365 4.0748
6/23/2021 1:00:00 PM 7.1501 4.1585
6/23/2021 1:15:00 PM 7.1638 4.2093
6/23/2021 1:30:00 PM 7.1818 4.128
6/23/2021 1:45:00 PM 7.1984 4.2164
6/23/2021 2:00:00 PM 7.2133 4.3303
6/23/2021 2:15:00 PM 7.2322 4.5159
6/23/2021 2:30:00 PM 7.2486 4.1449
6/23/2021 2:45:00 PM 7.2649 4.0413
6/23/2021 3:00:00 PM 7.2828 3.9678
6/23/2021 3:15:00 PM 7.2997 3.9577
6/23/2021 3:30:00 PM 7.3188 3.9598
6/23/2021 3:45:00 PM 7.3333 3.998
6/23/2021 4:00:00 PM 7.3482 3.985
6/23/2021 4:15:00 PM 7.368 3.9323
6/23/2021 4:30:00 PM 7.3899 3.9565
6/23/2021 4:45:00 PM 7.4121 4.0377
6/23/2021 5:00:00 PM 7.4348 4.3005
6/23/2021 5:15:00 PM 7.4573 4.2175
6/23/2021 5:30:00 PM 7.4838 4.2451
6/23/2021 5:45:00 PM 7.5026 4.3
6/23/2021 6:00:00 PM 7.5306 4.6504
6/23/2021 6:15:00 PM 7.5445 4.0752
6/23/2021 6:30:00 PM 7.5546 3.8451
6/23/2021 6:45:00 PM 7.5696 3.8575
6/23/2021 7:00:00 PM 7.5893 3.8159
6/23/2021 7:15:00 PM 7.6061 3.8389
6/23/2021 7:30:00 PM 7.6155 3.8245
6/23/2021 7:45:00 PM 7.622 4.2648
6/23/2021 8:00:00 PM 7.6216 4.5176
6/23/2021 8:15:00 PM 7.6194 4.3674
6/23/2021 8:30:00 PM 7.6136 4.2615
6/23/2021 8:45:00 PM 7.6132 4.4
6/23/2021 9:00:00 PM 7.592 4.403
6/23/2021 9:15:00 PM 7.5788 4.4483
6/23/2021 9:30:00 PM 7.5638 4.4648
6/23/2021 9:45:00 PM 7.5236 4.9791
6/23/2021 10:00:00 PM 7.4855 7.2062
6/23/2021 10:15:00 PM 7.5113 6.6788
6/23/2021 10:30:00 PM 7.5067 6.12
6/23/2021 10:45:00 PM 7.4799 6.2137
6/23/2021 11:00:00 PM 7.4557 5.9285
6/23/2021 11:15:00 PM 7.4361 5.9876
6/23/2021 11:30:00 PM 7.4266 5.8872
6/23/2021 11:45:00 PM 7.4172 5.8
6/24/2021 12:00:00 AM 7.3941 7.962
6/24/2021 12:15:00 AM 7.3715 7.3432
6/24/2021 12:30:00 AM 7.3519 6.5082
6/24/2021 12:45:00 AM 7.3376 6.7077
6/24/2021 1:00:00 AM 7.3273 6.5793
6/24/2021 1:15:00 AM 7.311 6.719
6/24/2021 1:30:00 AM 7.2872 6.7563
6/24/2021 1:45:00 AM 7.2633 6.9375
6/24/2021 2:00:00 AM 7.2446 7.4576
6/24/2021 2:15:00 AM 7.2246 7.5647
6/24/2021 2:30:00 AM 7.2039 7.3267
6/24/2021 2:45:00 AM 7.1918 7.2001
6/24/2021 3:00:00 AM 7.1752 7.4045
6/24/2021 3:15:00 AM 7.1623 7.3118
6/24/2021 3:30:00 AM 7.1478 7.1188
6/24/2021 3:45:00 AM 7.1347 7.3562
6/24/2021 4:00:00 AM 7.1209 7.3371
6/24/2021 4:15:00 AM 7.1092 7.3032
6/24/2021 4:30:00 AM 7.0991 7.6998
6/24/2021 4:45:00 AM 7.084 7.2975
6/24/2021 5:00:00 AM 7.0786 6.2448
6/24/2021 5:15:00 AM 7.0672 5.8425
6/24/2021 5:30:00 AM 7.0533 5.484
6/24/2021 5:45:00 AM 7.0504 5.4
6/24/2021 6:00:00 AM 7.0323 5.0854
6/24/2021 6:15:00 AM 7.0228 4.9413
6/24/2021 6:30:00 AM 7.0163 5.0102
6/24/2021 6:45:00 AM 7.0143 5.1453
6/24/2021 7:00:00 AM 7.0116 5.1108
6/24/2021 7:15:00 AM 7.0094 5.0513
6/24/2021 7:30:00 AM 7.0048 4.9379
6/24/2021 7:45:00 AM 7.0044 4.7573
6/24/2021 8:00:00 AM 7.0022 4.759
6/24/2021 8:15:00 AM 7.0044 4.9923
6/24/2021 8:30:00 AM 7.0039 4.9338
6/24/2021 8:45:00 AM 7.0014 5
6/24/2021 9:00:00 AM 7.0118 5.2751
6/24/2021 9:15:00 AM 7.0184 4.8066
6/24/2021 9:30:00 AM 7.0221 4.6972
6/24/2021 9:45:00 AM 7.0258 4.9446
6/24/2021 10:00:00 AM 7.0317 5.076
6/24/2021 10:15:00 AM 7.0386 5.0505
6/24/2021 10:30:00 AM 7.0443 5.0436
6/24/2021 10:45:00 AM 7.0513 5.4207
6/24/2021 11:00:00 AM 7.0573 5.4256
6/24/2021 11:15:00 AM 7.0646 6.2974
6/24/2021 11:30:00 AM 7.0723 6.4115
6/24/2021 11:45:00 AM 7.0784 5.6
6/24/2021 12:00:00 PM 7.0951 5.8813
6/24/2021 12:15:00 PM 7.1059 5.7317
6/24/2021 12:30:00 PM 7.1161 5.1492
6/24/2021 12:45:00 PM 7.1273 4.8236
6/24/2021 1:00:00 PM 7.1358 4.7598
6/24/2021 1:15:00 PM 7.1546 4.7925
6/24/2021 1:30:00 PM 7.1773 4.9182
6/24/2021 1:45:00 PM 7.1992 4.7812
6/24/2021 2:00:00 PM 7.2136 5.2435
6/24/2021 2:15:00 PM 7.2218 5.3029
6/24/2021 2:30:00 PM 7.235 4.9739
6/24/2021 2:45:00 PM 7.2544 4.9148
6/24/2021 3:00:00 PM 7.2786 4.9326
6/24/2021 3:15:00 PM 7.3064 5.3466
6/24/2021 3:30:00 PM 7.3292 5.62
6/24/2021 3:45:00 PM 7.3449 5.1307
6/24/2021 4:00:00 PM 7.3711 4.9211
6/24/2021 4:15:00 PM 7.403 4.6779
6/24/2021 4:30:00 PM 7.4335 4.4939
6/24/2021 4:45:00 PM 7.4652 4.5219
6/24/2021 5:00:00 PM 7.4877 4.6224
6/24/2021 5:15:00 PM 7.5043 5.1738
6/24/2021 5:30:00 PM 7.5298 4.8203
6/24/2021 5:45:00 PM 7.5446 4.6
6/24/2021 6:00:00 PM 7.5791 4.4876
6/24/2021 6:15:00 PM 7.6011 4.4902
6/24/2021 6:30:00 PM 7.6249 4.4051
6/24/2021 6:45:00 PM 7.6392 4.4629
6/24/2021 7:00:00 PM 7.6497 4.4203
6/24/2021 7:15:00 PM 7.6554 4.6406
6/24/2021 7:30:00 PM 7.6612 4.8157
6/24/2021 7:45:00 PM 7.6689 5.558
6/24/2021 8:00:00 PM 7.6223 7.2239
6/24/2021 8:15:00 PM 7.6669 5.9571
6/24/2021 8:30:00 PM 7.6784 5.5248
6/24/2021 8:45:00 PM 7.679 5.6
6/24/2021 9:00:00 PM 7.6641 5.5502
6/24/2021 9:15:00 PM 7.6559 6.1196
6/24/2021 9:30:00 PM 7.6438 6.554
6/24/2021 9:45:00 PM 7.6309 6.4641
6/24/2021 10:00:00 PM 7.615 6.6357
6/24/2021 10:15:00 PM 7.5964 6.9187
6/24/2021 10:30:00 PM 7.5764 6.8774
6/24/2021 10:45:00 PM 7.5596 6.7543
6/24/2021 11:00:00 PM 7.5437 6.6571
6/24/2021 11:15:00 PM 7.5255 6.8192
6/24/2021 11:30:00 PM 7.507 6.4301
6/24/2021 11:45:00 PM 7.497 6.2001
6/25/2021 12:00:00 AM 7.4834 6.9223
6/25/2021 12:15:00 AM 7.4655 7.274
6/25/2021 12:30:00 AM 7.4497 7.6367
6/25/2021 12:45:00 AM 7.4305 8.0153
6/25/2021 1:00:00 AM 7.411 8.12
6/25/2021 1:15:00 AM 7.392 8.9763
6/25/2021 1:30:00 AM 7.3699 9.5076
6/25/2021 1:45:00 AM 7.3445 9.6914
6/25/2021 2:00:00 AM 7.3186 10.3349
6/25/2021 2:15:00 AM 7.2901 9.9153
6/25/2021 2:30:00 AM 7.2654 9.2696
6/25/2021 2:45:00 AM 7.2548 8.9
6/25/2021 3:00:00 AM 7.2193 10.7118
6/25/2021 3:15:00 AM 7.2002 10.7459
6/25/2021 3:30:00 AM 7.1818 9.9099
6/25/2021 3:45:00 AM 7.1632 9.439
6/25/2021 4:00:00 AM 7.1474 8.7418
6/25/2021 4:15:00 AM 7.1343 10.0757
6/25/2021 4:30:00 AM 7.1124 10.4141
6/25/2021 4:45:00 AM 7.094 9.8995
6/25/2021 5:00:00 AM 7.0793 10.2524
6/25/2021 5:15:00 AM 7.068 8.8728
6/25/2021 5:30:00 AM 7.0614 7.3042
6/25/2021 5:45:00 AM 7.0574 7.3
6/25/2021 6:00:00 AM 7.0364 8.5287
6/25/2021 6:15:00 AM 7.0238 10.5749
6/25/2021 6:30:00 AM 7.0167 10.1916
6/25/2021 6:45:00 AM 7.0122 7.9491
6/25/2021 7:00:00 AM 7.0101 6.4335
6/25/2021 7:15:00 AM 7.0138 5.7048
6/25/2021 7:30:00 AM 7.0189 5.1509
6/25/2021 7:45:00 AM 7.0192 4.9868
6/25/2021 8:00:00 AM 7.0186 4.9832
6/25/2021 8:15:00 AM 7.0196 5.1365
6/25/2021 8:30:00 AM 7.0182 5.1684
6/25/2021 8:45:00 AM 7.0196 5.2
6/25/2021 9:00:00 AM 7.0236 5.3324
6/25/2021 9:15:00 AM 7.0291 5.3452
6/25/2021 9:30:00 AM 7.0343 5.2851
6/25/2021 9:45:00 AM 7.0391 5.139
6/25/2021 10:00:00 AM 7.044 4.991
6/25/2021 10:15:00 AM 7.0506 5.3448
6/25/2021 10:30:00 AM 7.0584 5.4283
6/25/2021 10:45:00 AM 7.0656 5.1433
6/25/2021 11:00:00 AM 7.0732 4.974
6/25/2021 11:15:00 AM 7.081 4.8369
6/25/2021 11:30:00 AM 7.0871 4.784
6/25/2021 11:45:00 AM 7.0882 5.2
6/25/2021 12:00:00 PM 7.1015 5.1038
6/25/2021 12:15:00 PM 7.1109 4.9941
6/25/2021 12:30:00 PM 7.1254 4.8922
6/25/2021 12:45:00 PM 7.1445 4.9951
6/25/2021 1:00:00 PM 7.16 4.8165
6/25/2021 1:15:00 PM 7.171 4.4178
6/25/2021 1:30:00 PM 7.1797 4.2503
6/25/2021 1:45:00 PM 7.1959 4.2102
6/25/2021 2:00:00 PM 7.2087 4.3036
6/25/2021 2:15:00 PM 7.2204 4.3621
6/25/2021 2:30:00 PM 7.2419 4.1457
6/25/2021 2:45:00 PM 7.2616 4.1444
6/25/2021 3:00:00 PM 7.2824 4.1486
6/25/2021 3:15:00 PM 7.2978 4.1104
6/25/2021 3:30:00 PM 7.3198 4.3304
6/25/2021 3:45:00 PM 7.3417 4.9289
6/25/2021 4:00:00 PM 7.3623 5.1501
6/25/2021 4:15:00 PM 7.3802 4.5782
6/25/2021 4:30:00 PM 7.4012 4.3209
6/25/2021 4:45:00 PM 7.4268 4.2507
6/25/2021 5:00:00 PM 7.4542 4.116
6/25/2021 5:15:00 PM 7.4785 4.1679
6/25/2021 5:30:00 PM 7.5055 4.253
6/25/2021 5:45:00 PM 7.5194 4.3
6/25/2021 6:00:00 PM 7.5506 4.0947
6/25/2021 6:15:00 PM 7.5752 4.1012
6/25/2021 6:30:00 PM 7.5953 3.9261
6/25/2021 6:45:00 PM 7.6055 3.86
6/25/2021 7:00:00 PM 7.6136 3.7801
6/25/2021 7:15:00 PM 7.62 3.8307
6/25/2021 7:30:00 PM 7.6261 3.8385
6/25/2021 7:45:00 PM 7.6234 3.9335
6/25/2021 8:00:00 PM 7.6213 3.9916
6/25/2021 8:15:00 PM 7.6313 5.492
6/25/2021 8:30:00 PM 7.5832 7.7578
6/25/2021 8:45:00 PM 7.6048 6.9
6/25/2021 9:00:00 PM 7.6189 6.2286
6/25/2021 9:15:00 PM 7.6121 6.2881
6/25/2021 9:30:00 PM 7.6031 6.2137
6/25/2021 9:45:00 PM 7.5939 6.218
6/25/2021 10:00:00 PM 7.5804 6.1363
6/25/2021 10:15:00 PM 7.568 6.1187
6/25/2021 10:30:00 PM 7.5553 6.0271
6/25/2021 10:45:00 PM 7.5423 6.0589
6/25/2021 11:00:00 PM 7.5278 6.1206
6/25/2021 11:15:00 PM 7.5092 6.1286
6/25/2021 11:30:00 PM 7.49 6.2476
6/25/2021 11:45:00 PM 7.4844 6.4
6/26/2021 12:00:00 AM 7.4526 6.0726
6/26/2021 12:15:00 AM 7.4238 5.916
6/26/2021 12:30:00 AM 7.3962 6.1411
6/26/2021 12:45:00 AM 7.3725 6.4414
6/26/2021 1:00:00 AM 7.3503 6.5471
6/26/2021 1:15:00 AM 7.329 6.5332
6/26/2021 1:30:00 AM 7.3056 6.5836
6/26/2021 1:45:00 AM 7.2847 6.8539
6/26/2021 2:00:00 AM 7.2691 6.8459
6/26/2021 2:15:00 AM 7.2545 7.1917
6/26/2021 2:30:00 AM 7.2381 7.6655
6/26/2021 2:45:00 AM 7.2296 7.5
6/26/2021 3:00:00 AM 7.2036 7.7028
6/26/2021 3:15:00 AM 7.1893 7.7645
6/26/2021 3:30:00 AM 7.1608 7.6107
6/26/2021 3:45:00 AM 7.136 7.5071
6/26/2021 4:00:00 AM 7.1135 7.7506
6/26/2021 4:15:00 AM 7.0933 9.0399
6/26/2021 4:30:00 AM 7.0768 8.7903
6/26/2021 4:45:00 AM 7.0575 8.9135
6/26/2021 5:00:00 AM 7.0414 9.3909
6/26/2021 5:15:00 AM 7.0281 9.2989
6/26/2021 5:30:00 AM 7.0173 9.0768
6/26/2021 5:45:00 AM 7.0154 8.5
6/26/2021 6:00:00 AM 6.9944 8.1491
6/26/2021 6:15:00 AM 6.9832 7.9136
6/26/2021 6:30:00 AM 6.9588 7.7365
6/26/2021 6:45:00 AM 6.9447 6.3805
6/26/2021 7:00:00 AM 6.9386 6.3561
6/26/2021 7:15:00 AM 6.9287 6.525
6/26/2021 7:30:00 AM 6.9238 6.1712
6/26/2021 7:45:00 AM 6.9239 5.6777
6/26/2021 8:00:00 AM 6.9226 5.4521
6/26/2021 8:15:00 AM 6.92 5.4083
6/26/2021 8:30:00 AM 6.9176 5.2902
6/26/2021 8:45:00 AM 6.9174 5.3
6/26/2021 9:00:00 AM 6.9231 5.1511
6/26/2021 9:15:00 AM 6.9289 6.0822
6/26/2021 9:30:00 AM 6.9397 6.5517
6/26/2021 9:45:00 AM 6.9399 12.4409
6/26/2021 10:00:00 AM 6.9507 5.7495
6/26/2021 10:15:00 AM 6.9567 5.3752
6/26/2021 10:30:00 AM 6.9641 4.9632
6/26/2021 10:45:00 AM 6.9716 5.1689
6/26/2021 11:00:00 AM 6.9788 5.0638
6/26/2021 11:15:00 AM 6.9836 5.2331
6/26/2021 11:30:00 AM 6.9889 4.9074
6/26/2021 11:45:00 AM 6.986 4.8
6/26/2021 12:00:00 PM 7.0049 4.6311
6/26/2021 12:15:00 PM 7.0169 4.6403
6/26/2021 12:30:00 PM 7.0304 4.6531
6/26/2021 12:45:00 PM 7.042 4.9864
6/26/2021 1:00:00 PM 7.0556 4.8456
6/26/2021 1:15:00 PM 7.074 4.8016
6/26/2021 1:30:00 PM 7.0923 4.8351
6/26/2021 1:45:00 PM 7.1146 4.9453
6/26/2021 2:00:00 PM 7.1335 4.6983
6/26/2021 2:15:00 PM 7.1483 4.5905
6/26/2021 2:30:00 PM 7.1625 4.4758
6/26/2021 2:45:00 PM 7.1768 4.9133
6/26/2021 3:00:00 PM 7.1926 6.1272
6/26/2021 3:15:00 PM 7.2095 8.9819
6/26/2021 3:30:00 PM 7.2234 10.3075
6/26/2021 3:45:00 PM 7.2514 6.608
6/26/2021 4:00:00 PM 7.2824 5.7072
6/26/2021 4:15:00 PM 7.3131 5.2201
6/26/2021 4:30:00 PM 7.3461 4.5082
6/26/2021 4:45:00 PM 7.3768 4.2696
6/26/2021 5:00:00 PM 7.4024 6.8021
6/26/2021 5:15:00 PM 7.4259 7.5816
6/26/2021 5:30:00 PM 7.4904 7.2827
6/26/2021 5:45:00 PM 7.4984 6.3
6/26/2021 6:00:00 PM 7.585 5.747
6/26/2021 6:15:00 PM 7.6213 5.4985
6/26/2021 6:30:00 PM 7.6383 5.3188
6/26/2021 6:45:00 PM 7.6613 5.085
6/26/2021 7:00:00 PM 7.6813 5.126
6/26/2021 7:15:00 PM 7.7083 4.9555
6/26/2021 7:30:00 PM 7.727 4.9921
6/26/2021 7:45:00 PM 7.7347 4.9849
6/26/2021 8:00:00 PM 7.7334 4.9851
6/26/2021 8:15:00 PM 7.7404 4.9794
6/26/2021 8:30:00 PM 7.7369 5.1817
6/26/2021 8:45:00 PM 7.7434 6.2
6/26/2021 9:00:00 PM 7.7196 5.374
6/26/2021 9:15:00 PM 7.706 5.7136
6/26/2021 9:30:00 PM 7.6996 5.8421
6/26/2021 9:45:00 PM 7.6896 5.7849
6/26/2021 10:00:00 PM 7.6809 5.597
6/26/2021 10:15:00 PM 7.6774 5.7606
6/26/2021 10:30:00 PM 7.6691 5.7332
6/26/2021 10:45:00 PM 7.6592 5.9113
6/26/2021 11:00:00 PM 7.6511 5.8219
6/26/2021 11:15:00 PM 7.6333 5.868
6/26/2021 11:30:00 PM 7.6267 5.8512
6/26/2021 11:45:00 PM 7.6132 5.7
6/27/2021 12:00:00 AM 7.5859 5.8967
6/27/2021 12:15:00 AM 7.5643 6.1273
6/27/2021 12:30:00 AM 7.5424 6.3141
6/27/2021 12:45:00 AM 7.5217 7.5122
6/27/2021 1:00:00 AM 7.4998 8.1625
6/27/2021 1:15:00 AM 7.4757 9.6919
6/27/2021 1:30:00 AM 7.4619 7.005
6/27/2021 1:45:00 AM 7.4422 6.5356
6/27/2021 2:00:00 AM 7.426 6.4588
6/27/2021 2:15:00 AM 7.4089 6.4651
6/27/2021 2:30:00 AM 7.3863 6.3458
6/27/2021 2:45:00 AM 7.3696 6.5
6/27/2021 3:00:00 AM 7.3211 8.1949
6/27/2021 3:15:00 AM 7.2999 7.7748
6/27/2021 3:30:00 AM 7.275 6.0413
6/27/2021 3:45:00 AM 7.2497 5.7416
6/27/2021 4:00:00 AM 7.2294 5.5873
6/27/2021 4:15:00 AM 7.2115 6.0368
6/27/2021 4:30:00 AM 7.1923 7.0131
6/27/2021 4:45:00 AM 7.1719 7.6995
6/27/2021 5:00:00 AM 7.1483 7.7066
6/27/2021 5:15:00 AM 7.1259 7.3542
6/27/2021 5:30:00 AM 7.1053 7.1344
6/27/2021 5:45:00 AM 7.0938 6.9
6/27/2021 6:00:00 AM 7.059 6.6177
6/27/2021 6:15:00 AM 7.0382 6.3446
6/27/2021 6:30:00 AM 7.023 6.0101
6/27/2021 6:45:00 AM 7.0107 5.6094
6/27/2021 7:00:00 AM 6.9997 5.4883
6/27/2021 7:15:00 AM 6.9882 5.4429
6/27/2021 7:30:00 AM 6.9786 5.7767
6/27/2021 7:45:00 AM 6.9705 5.4179
6/27/2021 8:00:00 AM 6.9654 4.9576
6/27/2021 8:15:00 AM 6.9617 5.8115
6/27/2021 8:30:00 AM 6.9565 6.1761
6/27/2021 8:45:00 AM 6.9566 7.5
6/27/2021 9:00:00 AM 6.9503 6.1168
6/27/2021 9:15:00 AM 6.9547 5.806
6/27/2021 9:30:00 AM 6.9639 5.435
6/27/2021 9:45:00 AM 6.9638 4.862
6/27/2021 10:00:00 AM 6.9658 4.7505
6/27/2021 10:15:00 AM 6.9708 4.5977
6/27/2021 10:30:00 AM 6.9762 4.4654
6/27/2021 10:45:00 AM 6.981 4.58
6/27/2021 11:00:00 AM 6.9885 6.2516
6/27/2021 11:15:00 AM 7.0046 6.3041
6/27/2021 11:30:00 AM 7.0228 5.8031
6/27/2021 11:45:00 AM 7.0308 6.3
6/27/2021 12:00:00 PM 7.0664 6.3409
6/27/2021 12:15:00 PM 7.0856 13.5224
6/27/2021 12:30:00 PM 7.1193 8.8873
6/27/2021 12:45:00 PM 7.1727 6.0365
6/27/2021 1:00:00 PM 7.225 5.5469
6/27/2021 1:15:00 PM 7.2683 5.026
6/27/2021 1:30:00 PM 7.3029 4.7372
6/27/2021 1:45:00 PM 7.3022 4.7536
6/27/2021 2:00:00 PM 7.3238 4.7765
6/27/2021 2:15:00 PM 7.3674 4.8071
6/27/2021 2:30:00 PM 7.3899 5.0248
6/27/2021 2:45:00 PM 7.5046 5.1063
6/27/2021 3:00:00 PM 7.5217 5.0286
6/27/2021 3:15:00 PM 7.6178 8.8872
6/27/2021 3:30:00 PM 7.5914 9.6171
6/27/2021 3:45:00 PM 7.6668 7.4531
6/27/2021 4:00:00 PM 7.6173 6.0693
6/27/2021 4:15:00 PM 7.6288 5.3735
6/27/2021 4:30:00 PM 7.6516 5.1577
6/27/2021 4:45:00 PM 7.6757 5.1384
6/27/2021 5:00:00 PM 7.7522 8.652
6/27/2021 5:15:00 PM 7.7693 9.1566
6/27/2021 5:30:00 PM 7.7966 7.3759
6/27/2021 5:45:00 PM 7.812 7.1
6/27/2021 6:00:00 PM 7.9017 6.3231
6/27/2021 6:15:00 PM 8.0332 5.9373
6/27/2021 6:30:00 PM 8.1823 5.6113
6/27/2021 6:45:00 PM 8.1558 5.7457
6/27/2021 7:00:00 PM 8.1208 5.4728
6/27/2021 7:15:00 PM 8.0934 5.1785
6/27/2021 7:30:00 PM 8.063 5.1158
6/27/2021 7:45:00 PM 8.0609 5.1341
6/27/2021 8:00:00 PM 8.0425 6.8405
6/27/2021 8:15:00 PM 8.0399 5.953
6/27/2021 8:30:00 PM 8.0316 5.697
6/27/2021 8:45:00 PM 8.0234 5.5
6/27/2021 9:00:00 PM 7.9678 5.5671
6/27/2021 9:15:00 PM 7.9623 5.7951
6/27/2021 9:30:00 PM 7.9437 5.865
6/27/2021 9:45:00 PM 7.9168 5.9785
6/27/2021 10:00:00 PM 7.8959 5.9192
6/27/2021 10:15:00 PM 7.8509 5.9988
6/27/2021 10:30:00 PM 7.8162 5.9962
6/27/2021 10:45:00 PM 7.8177 5.8763
6/27/2021 11:00:00 PM 7.8264 5.8118
6/27/2021 11:15:00 PM 7.7516 6.0258
6/27/2021 11:30:00 PM 7.6894 6.0669
6/27/2021 11:45:00 PM 7.6902 6.1
6/28/2021 12:00:00 AM 7.7298 6.3561
6/28/2021 12:15:00 AM 7.7283 6.3538
6/28/2021 12:30:00 AM 7.7292 6.417
6/28/2021 12:45:00 AM 7.7184 6.373
6/28/2021 1:00:00 AM 7.6788 6.4586
6/28/2021 1:15:00 AM 7.6445 6.5989
6/28/2021 1:30:00 AM 7.5007 6.5053
6/28/2021 1:45:00 AM 7.321 6.5225
6/28/2021 2:00:00 AM 7.1675 6.3317
6/28/2021 2:15:00 AM 7.1689 6.5956
6/28/2021 2:30:00 AM 7.1543 6.9654
6/28/2021 2:45:00 AM 7.1456 7.4
6/28/2021 3:00:00 AM 7.1372 6.7287
6/28/2021 3:15:00 AM 7.1212 7.1591
6/28/2021 3:30:00 AM 7.1071 6.8146
6/28/2021 3:45:00 AM 7.0904 6.8478
6/28/2021 4:00:00 AM 7.0694 6.9359
6/28/2021 4:15:00 AM 7.0419 5.9637
6/28/2021 4:30:00 AM 7.0367 5.6136
6/28/2021 4:45:00 AM 7.02 5.669
6/28/2021 5:00:00 AM 7.0023 5.5957
6/28/2021 5:15:00 AM 6.9905 5.4039
6/28/2021 5:30:00 AM 6.9787 5.0347
6/28/2021 5:45:00 AM 6.9748 4.9
6/28/2021 6:00:00 AM 6.9611 4.6791
6/28/2021 6:15:00 AM 6.9524 4.7364
6/28/2021 6:30:00 AM 6.9422 4.6429
6/28/2021 6:45:00 AM 6.9338 4.5484
6/28/2021 7:00:00 AM 6.9276 4.6475
6/28/2021 7:15:00 AM 6.9216 4.5591
6/28/2021 7:30:00 AM 6.9161 4.4697
6/28/2021 7:45:00 AM 6.9113 4.4485
6/28/2021 8:00:00 AM 6.9075 4.3843
6/28/2021 8:15:00 AM 6.9073 4.4083
6/28/2021 8:30:00 AM 6.9068 4.3394
6/28/2021 8:45:00 AM 6.9006 4.3
6/28/2021 9:00:00 AM 6.898 6.8451
6/28/2021 9:15:00 AM 6.9014 17.6251
6/28/2021 9:30:00 AM 6.8987 10.565
6/28/2021 9:45:00 AM 6.8954 3.8204
6/28/2021 10:00:00 AM 6.9025 4.0579
6/28/2021 10:15:00 AM 6.9077 3.9779
6/28/2021 10:30:00 AM 6.9121 3.886
6/28/2021 10:45:00 AM 6.9191 4.149
6/28/2021 11:00:00 AM 6.9211 5.5761
6/28/2021 11:15:00 AM 6.9246 4.0375
6/28/2021 11:30:00 AM 6.937 3.7483
6/28/2021 11:45:00 AM 6.9426 3.6
6/28/2021 12:00:00 PM 6.9487 3.4913
6/28/2021 12:15:00 PM 6.9565 3.5951
6/28/2021 12:30:00 PM 6.9644 3.6724
6/28/2021 12:45:00 PM 6.9718 3.5837
6/28/2021 1:00:00 PM 6.9751 4.0099
6/28/2021 1:15:00 PM 6.9833 4.0464
6/28/2021 1:30:00 PM 6.9939 3.9717
6/28/2021 1:45:00 PM 7.0085 3.8143
6/28/2021 2:00:00 PM 7.0305 3.9685
6/28/2021 2:15:00 PM 7.0456 4.4107
6/28/2021 2:30:00 PM 7.0611 4.4807
6/28/2021 2:45:00 PM 7.0833 4.1132
6/28/2021 3:00:00 PM 7.1061 4.0156
6/28/2021 3:15:00 PM 7.1205 3.9604
6/28/2021 3:30:00 PM 7.1335 3.9831
6/28/2021 3:45:00 PM 7.1616 4.0747
6/28/2021 4:00:00 PM 7.1856 3.9433
6/28/2021 4:15:00 PM 7.196 3.9627
6/28/2021 4:30:00 PM 7.2049 4.3618
6/28/2021 4:45:00 PM 7.2093 4.0714
6/28/2021 5:00:00 PM 7.2182 3.8453
6/28/2021 5:15:00 PM 7.196 6.6102
6/28/2021 5:30:00 PM 7.2257 6.9903
6/28/2021 5:45:00 PM 7.2352 5.8
6/28/2021 6:00:00 PM 7.2536 4.7625
6/28/2021 6:15:00 PM 7.2565 4.6998
6/28/2021 6:30:00 PM 7.2615 4.5692
6/28/2021 6:45:00 PM 7.2684 4.5548
6/28/2021 7:00:00 PM 7.2794 4.4017
6/28/2021 7:15:00 PM 7.2861 4.4
6/28/2021 7:30:00 PM 7.2849 4.513
6/28/2021 7:45:00 PM 7.2837 4.5415
6/28/2021 8:00:00 PM 7.2837 4.409
6/28/2021 8:15:00 PM 7.2802 4.4999
6/28/2021 8:30:00 PM 7.2728 4.7972
6/28/2021 8:45:00 PM 7.266 5.6
6/28/2021 9:00:00 PM 7.2615 5.0917
6/28/2021 9:15:00 PM 7.2533 5.4881
6/28/2021 9:30:00 PM 7.2451 5.7493
6/28/2021 9:45:00 PM 7.2366 5.715
6/28/2021 10:00:00 PM 7.228 5.5386
6/28/2021 10:15:00 PM 7.2195 5.3584
6/28/2021 10:30:00 PM 7.2099 5.4633
6/28/2021 10:45:00 PM 7.2016 5.4847
6/28/2021 11:00:00 PM 7.1928 5.4452
6/28/2021 11:15:00 PM 7.1847 5.562
6/28/2021 11:30:00 PM 7.1742 5.6664
6/28/2021 11:45:00 PM 7.168 5.6
6/29/2021 12:00:00 AM 7.1589 5.8824
6/29/2021 12:15:00 AM 7.1513 5.8388
6/29/2021 12:30:00 AM 7.1415 5.7225
6/29/2021 12:45:00 AM 7.1311 6.048
6/29/2021 1:00:00 AM 7.1201 5.9493
6/29/2021 1:15:00 AM 7.1101 5.9975
6/29/2021 1:30:00 AM 7.0996 6.1578
6/29/2021 1:45:00 AM 7.0892 6.1947
6/29/2021 2:00:00 AM 7.0798 6.2333
6/29/2021 2:15:00 AM 7.0666 6.2338
6/29/2021 2:30:00 AM 7.0531 6.0554
6/29/2021 2:45:00 AM 7.0518 6.0999
6/29/2021 3:00:00 AM 7.0351 6.1839
6/29/2021 3:15:00 AM 7.0139 6.7103
6/29/2021 3:30:00 AM 7.008 6.5599
6/29/2021 3:45:00 AM 7.0023 7.2997
6/29/2021 4:00:00 AM 6.9932 6.3078
6/29/2021 4:15:00 AM 6.9864 5.7772
6/29/2021 4:30:00 AM 6.979 5.7276
6/29/2021 4:45:00 AM 6.9698 5.6729
6/29/2021 5:00:00 AM 6.958 5.7618
6/29/2021 5:15:00 AM 6.9457 5.6938
6/29/2021 5:30:00 AM 6.9328 5.4539
6/29/2021 5:45:00 AM 6.9286 5.3
6/29/2021 6:00:00 AM 6.9071 5.1028
6/29/2021 6:15:00 AM 6.8989 4.9868
6/29/2021 6:30:00 AM 6.8885 4.6855
6/29/2021 6:45:00 AM 6.8777 4.5856
6/29/2021 7:00:00 AM 6.8655 4.456
6/29/2021 7:15:00 AM 6.8567 4.4563
6/29/2021 7:30:00 AM 6.8478 4.4701
6/29/2021 7:45:00 AM 6.8418 4.4288
6/29/2021 8:00:00 AM 6.8403 4.376
6/29/2021 8:15:00 AM 6.8422 4.3535
6/29/2021 8:30:00 AM 6.8454 4.2665
6/29/2021 8:45:00 AM 6.8446 4.4
6/29/2021 9:00:00 AM 6.8396 4.4661
6/29/2021 9:15:00 AM 6.8398 5.2168
6/29/2021 9:30:00 AM 6.8467 5.0164
6/29/2021 9:45:00 AM 6.8408 4.6183
6/29/2021 10:00:00 AM 6.839 4.2958
6/29/2021 10:15:00 AM 6.8363 4.4295
6/29/2021 10:30:00 AM 6.8354 4.5149
6/29/2021 10:45:00 AM 6.8354 4.3658
6/29/2021 11:00:00 AM 6.8419 3.9924
6/29/2021 11:15:00 AM 6.8479 4.0174
6/29/2021 11:30:00 AM 6.8567 3.8499
6/29/2021 11:45:00 AM 6.8614 3.8002
6/29/2021 12:00:00 PM 6.8753 4.7959
6/29/2021 12:15:00 PM 6.8824 5.2116
6/29/2021 12:30:00 PM 6.8945 4.498
6/29/2021 12:45:00 PM 6.9126 4.2886
6/29/2021 1:00:00 PM 6.9268 4.1952
6/29/2021 1:15:00 PM 6.9374 3.9492
6/29/2021 1:30:00 PM 6.9436 3.8778
6/29/2021 1:45:00 PM 6.954 3.7623
6/29/2021 2:00:00 PM 6.9665 3.7068
6/29/2021 2:15:00 PM 6.9758 3.7165
6/29/2021 2:30:00 PM 6.9848 3.785
6/29/2021 2:45:00 PM 6.9953 4.1757
6/29/2021 3:00:00 PM 7.0084 3.946
6/29/2021 3:15:00 PM 7.0249 4.0867
6/29/2021 3:30:00 PM 7.043 4.1872
6/29/2021 3:45:00 PM 7.0632 3.9902
6/29/2021 4:00:00 PM 7.0754 4.1548
6/29/2021 4:15:00 PM 7.0864 4.7554
6/29/2021 4:30:00 PM 7.0722 7.9847
6/29/2021 4:45:00 PM 7.1105 6.1111
6/29/2021 5:00:00 PM 7.1314 5.0787
6/29/2021 5:15:00 PM 7.1555 4.9177
6/29/2021 5:30:00 PM 7.1722 4.8224
6/29/2021 5:45:00 PM 7.1778 5
6/29/2021 6:00:00 PM 7.2112 4.7771
6/29/2021 6:15:00 PM 7.2218 4.5323
6/29/2021 6:30:00 PM 7.2252 4.3648
6/29/2021 6:45:00 PM 7.2328 4.3656
6/29/2021 7:00:00 PM 7.2362 4.1217
6/29/2021 7:15:00 PM 7.2397 4.311
6/29/2021 7:30:00 PM 7.2405 4.1703
6/29/2021 7:45:00 PM 7.2368 4.4537
6/29/2021 8:00:00 PM 7.2351 5.286
6/29/2021 8:15:00 PM 7.2312 10.1107
6/29/2021 8:30:00 PM 7.2277 7.3216
6/29/2021 8:45:00 PM 7.2268 6.6
6/29/2021 9:00:00 PM 7.2133 5.9596
6/29/2021 9:15:00 PM 7.2101 5.9563
6/29/2021 9:30:00 PM 7.1978 5.789
6/29/2021 9:45:00 PM 7.183 6.0713
6/29/2021 10:00:00 PM 7.174 5.952
6/29/2021 10:15:00 PM 7.1665 6.3371
6/29/2021 10:30:00 PM 7.1577 6.1878
6/29/2021 10:45:00 PM 7.1474 6.4301
6/29/2021 11:00:00 PM 7.1338 6.8102
6/29/2021 11:15:00 PM 7.1194 7.9592
6/29/2021 11:30:00 PM 7.1068 8.1979
6/29/2021 11:45:00 PM 7.098 7.6
6/30/2021 12:00:00 AM 7.0962 6.5522
6/30/2021 12:15:00 AM 7.091 6.4925
6/30/2021 12:30:00 AM 7.083 6.373
6/30/2021 12:45:00 AM 7.075 6.4668
6/30/2021 1:00:00 AM 7.0679 6.1912
6/30/2021 1:15:00 AM 7.0613 6.403
6/30/2021 1:30:00 AM 7.0513 6.1615
6/30/2021 1:45:00 AM 7.0429 6.4116
6/30/2021 2:00:00 AM 7.0364 6.1992
6/30/2021 2:15:00 AM 7.0282 6.8175
6/30/2021 2:30:00 AM 7.0228 6.5951
6/30/2021 2:45:00 AM 7.0154 6.2
6/30/2021 3:00:00 AM 7.0055 6.6233
6/30/2021 3:15:00 AM 6.9937 7.2029
6/30/2021 3:30:00 AM 6.984 6.427
6/30/2021 3:45:00 AM 6.9769 6.6401
6/30/2021 4:00:00 AM 6.9648 6.3573
6/30/2021 4:15:00 AM 6.9548 6.7457
6/30/2021 4:30:00 AM 6.9449 6.8168
6/30/2021 4:45:00 AM 6.9357 7.1605
6/30/2021 5:00:00 AM 6.9257 7.0233
6/30/2021 5:15:00 AM 6.9054 7.3124
6/30/2021 5:30:00 AM 6.9009 5.6616
6/30/2021 5:45:00 AM 6.8978 5.2
6/30/2021 6:00:00 AM 6.883 4.9058
6/30/2021 6:15:00 AM 6.8722 5.0287
6/30/2021 6:30:00 AM 6.8605 4.7705
6/30/2021 6:45:00 AM 6.8498 4.7434
6/30/2021 7:00:00 AM 6.8403 4.6096
6/30/2021 7:15:00 AM 6.8303 4.8521
6/30/2021 7:30:00 AM 6.822 4.8699
6/30/2021 7:45:00 AM 6.8137 5.2383
6/30/2021 8:00:00 AM 6.8072 4.7107
6/30/2021 8:15:00 AM 6.8024 4.7454
6/30/2021 8:30:00 AM 6.7982 4.7854
6/30/2021 8:45:00 AM 6.797 4.8
6/30/2021 9:00:00 AM 6.7947 4.1226
6/30/2021 9:15:00 AM 6.799 4.7182
6/30/2021 9:30:00 AM 6.8102 4.436
6/30/2021 9:45:00 AM 6.8059 4.184
6/30/2021 10:00:00 AM 6.8046 3.9531
6/30/2021 10:15:00 AM 6.8083 4.0506
6/30/2021 10:30:00 AM 6.8151 4.2124
6/30/2021 10:45:00 AM 6.82 4.3213
6/30/2021 11:00:00 AM 6.8292 4.0545
6/30/2021 11:15:00 AM 6.837 4.1489
6/30/2021 11:30:00 AM 6.8446 4.6044
6/30/2021 11:45:00 AM 6.8474 4.7001
6/30/2021 12:00:00 PM 6.8698 4.5698
6/30/2021 12:15:00 PM 6.8819 4.2653
6/30/2021 12:30:00 PM 6.8892 4.0446
6/30/2021 12:45:00 PM 6.899 4.1201
6/30/2021 1:00:00 PM 6.9202 4.301
6/30/2021 1:15:00 PM 6.9358 4.7806
6/30/2021 1:30:00 PM 6.9469 4.4977
6/30/2021 1:45:00 PM 6.9615 4.4171
6/30/2021 2:00:00 PM 6.9765 4.1829
6/30/2021 2:15:00 PM 6.9863 4.1605
6/30/2021 2:30:00 PM 6.9952 3.9529
6/30/2021 2:45:00 PM 7.011 4.0295
6/30/2021 3:00:00 PM 7.0225 3.9123
6/30/2021 3:15:00 PM 7.0345 4.031
6/30/2021 3:30:00 PM 7.0478 4.0221
6/30/2021 3:45:00 PM 7.0667 4.0988
6/30/2021 4:00:00 PM 7.0835 4.0313
6/30/2021 4:15:00 PM 7.0991 4.3334
6/30/2021 4:30:00 PM 7.1152 5.844
6/30/2021 4:45:00 PM 7.1152 6.8653
6/30/2021 5:00:00 PM 7.1151 24.2054
6/30/2021 5:15:00 PM 7.0989 13.8883
6/30/2021 5:30:00 PM 7.0878 11.3559
6/30/2021 5:45:00 PM 7.0854 8
6/30/2021 6:00:00 PM 7.0826 5.2404
6/30/2021 6:15:00 PM 7.0848 5.3537
6/30/2021 6:30:00 PM 7.0902 6.73
6/30/2021 6:45:00 PM 7.0988 8.1706
6/30/2021 7:00:00 PM 7.0997 8.4466
6/30/2021 7:15:00 PM 7.0913 8.6564
6/30/2021 7:30:00 PM 7.0824 8.77
6/30/2021 7:45:00 PM 7.0682 9.5196
6/30/2021 8:00:00 PM 7.0542 10.2404
6/30/2021 8:15:00 PM 7.0439 12.3664
6/30/2021 8:30:00 PM 7.042 16.0053
6/30/2021 8:45:00 PM 7.042 17.6
6/30/2021 9:00:00 PM 7.0373 16.5192
6/30/2021 9:15:00 PM 7.0364 15.9968
6/30/2021 9:30:00 PM 7.033 14.9585
6/30/2021 9:45:00 PM 6.9948 15.1934
6/30/2021 10:00:00 PM 7.0117 15.5755
6/30/2021 10:15:00 PM 7.0229 14.9094
6/30/2021 10:30:00 PM 7.022 13.8465
6/30/2021 10:45:00 PM 7.018 13.2757
6/30/2021 11:00:00 PM 7.0156 12.5438
6/30/2021 11:15:00 PM 7.0103 12.5861
6/30/2021 11:30:00 PM 6.9995 14.0582
6/30/2021 11:45:00 PM 6.9944 16
7/1/2021 12:00:00 AM 6.9753 19.0323
7/1/2021 12:15:00 AM 6.9657 33.7218
7/1/2021 12:30:00 AM 6.9502 20.1287
7/1/2021 12:45:00 AM 6.9356 19.727
7/1/2021 1:00:00 AM 6.9279 19.054
7/1/2021 1:15:00 AM 6.9236 19.4322
7/1/2021 1:30:00 AM 6.9168 18.1667
7/1/2021 1:45:00 AM 6.9052 18.6854
7/1/2021 2:00:00 AM 6.8946 23.2149
7/1/2021 2:15:00 AM 6.8843 26.599
7/1/2021 2:30:00 AM 6.8736 26.7874
7/1/2021 2:45:00 AM 6.8712 26.7
7/1/2021 3:00:00 AM 6.8531 25.3516
7/1/2021 3:15:00 AM 6.8444 24.8142
7/1/2021 3:30:00 AM 6.8313 25.3937
7/1/2021 3:45:00 AM 6.8194 28.1071
7/1/2021 4:00:00 AM 6.8091 30.4347
7/1/2021 4:15:00 AM 6.7984 32.1443
7/1/2021 4:30:00 AM 6.7876 33.9828
7/1/2021 4:45:00 AM 6.7793 34.0462
7/1/2021 5:00:00 AM 6.7711 33.7239
7/1/2021 5:15:00 AM 6.7618 33.7076
7/1/2021 5:30:00 AM 6.7493 31.4352
7/1/2021 5:45:00 AM 6.7438 30.1
7/1/2021 6:00:00 AM 6.735 30.9449
7/1/2021 6:15:00 AM 6.7322 31.7643
7/1/2021 6:30:00 AM 6.7263 30.282
7/1/2021 6:45:00 AM 6.7191 29.8212
7/1/2021 7:00:00 AM 6.7129 29.5866
7/1/2021 7:15:00 AM 6.7071 28.8899
7/1/2021 7:30:00 AM 6.6991 28.0473
7/1/2021 7:45:00 AM 6.6915 27.7561
7/1/2021 8:00:00 AM 6.6876 31.138
7/1/2021 8:15:00 AM 6.6767 38.5982
7/1/2021 8:30:00 AM 6.6745 26.6813
7/1/2021 8:45:00 AM 6.6766 23
7/1/2021 9:00:00 AM 6.6754 18.7455
7/1/2021 9:15:00 AM 6.6752 19.8514
7/1/2021 9:30:00 AM 6.6745 19.3457
7/1/2021 9:45:00 AM 6.6758 15.7293
7/1/2021 10:00:00 AM 6.679 13.5592
7/1/2021 10:15:00 AM 6.6811 12.3458
7/1/2021 10:30:00 AM 6.6854 10.9369
7/1/2021 10:45:00 AM 6.69 10.8598
7/1/2021 11:00:00 AM 6.6951 11.0308
7/1/2021 11:15:00 AM 6.7003 10.6122
7/1/2021 11:30:00 AM 6.7033 10.4312
7/1/2021 11:45:00 AM 6.7018 10.4
7/1/2021 12:00:00 PM 6.7046 10.6724
7/1/2021 12:15:00 PM 6.7092 11.0099
7/1/2021 12:30:00 PM 6.7128 10.7951
7/1/2021 12:45:00 PM 6.7141 9.4335
7/1/2021 1:00:00 PM 6.7146 8.1923
7/1/2021 1:15:00 PM 6.7166 8.0476
7/1/2021 1:30:00 PM 6.7192 7.8505
7/1/2021 1:45:00 PM 6.7218 7.2679
7/1/2021 2:00:00 PM 6.7231 7.1495
7/1/2021 2:15:00 PM 6.7292 8.237
7/1/2021 2:30:00 PM 6.7387 7.6515
7/1/2021 2:45:00 PM 6.7444 7.2037
7/1/2021 3:00:00 PM 6.7428 7.2813
7/1/2021 3:15:00 PM 6.7434 7.2809
7/1/2021 3:30:00 PM 6.7448 7.5887
7/1/2021 3:45:00 PM 6.7475 7.9225
7/1/2021 4:00:00 PM 6.7422 15.1364
7/1/2021 4:15:00 PM 6.7451 11.7146
7/1/2021 4:30:00 PM 6.7581 7.1891
7/1/2021 4:45:00 PM 6.7645 6.749
7/1/2021 5:00:00 PM 6.7667 6.7352
7/1/2021 5:15:00 PM 6.7673 6.5323
7/1/2021 5:30:00 PM 6.7689 6.376
7/1/2021 5:45:00 PM 6.769 6.2
7/1/2021 6:00:00 PM 6.7808 6.4309
7/1/2021 6:15:00 PM 6.7861 6.4401
7/1/2021 6:30:00 PM 6.7911 6.3012
7/1/2021 6:45:00 PM 6.7977 6.2019
7/1/2021 7:00:00 PM 6.8048 6.1199
7/1/2021 7:15:00 PM 6.8106 6.1612
7/1/2021 7:30:00 PM 6.8163 6.2472
7/1/2021 7:45:00 PM 6.8207 6.1227
7/1/2021 8:00:00 PM 6.8205 6.2008
7/1/2021 8:15:00 PM 6.8267 6.0629
7/1/2021 8:30:00 PM 6.8352 6.1116
7/1/2021 8:45:00 PM 6.8404 6.2
7/1/2021 9:00:00 PM 6.8399 6.6572
7/1/2021 9:15:00 PM 6.8423 6.9183
7/1/2021 9:30:00 PM 6.8419 8.225
7/1/2021 9:45:00 PM 6.8267 12.4393
7/1/2021 10:00:00 PM 6.8521 9.5245
7/1/2021 10:15:00 PM 6.8611 8.8831
7/1/2021 10:30:00 PM 6.8623 8.5839
7/1/2021 10:45:00 PM 6.8697 8.3701
7/1/2021 11:00:00 PM 6.871 8.0799
7/1/2021 11:15:00 PM 6.8668 8.3791
7/1/2021 11:30:00 PM 6.8671 8.2294
7/1/2021 11:45:00 PM 6.8698 7.9
7/2/2021 12:00:00 AM 6.8738 7.6778
7/2/2021 12:15:00 AM 6.8737 7.593
7/2/2021 12:30:00 AM 6.8755 7.5061
7/2/2021 12:45:00 AM 6.8727 7.659
7/2/2021 1:00:00 AM 6.8713 7.5582
7/2/2021 1:15:00 AM 6.8687 7.3671
7/2/2021 1:30:00 AM 6.8684 7.8657
7/2/2021 1:45:00 AM 6.8655 7.4532
7/2/2021 2:00:00 AM 6.8621 7.2791
7/2/2021 2:15:00 AM 6.8582 8.429
7/2/2021 2:30:00 AM 6.8535 10.3266
7/2/2021 2:45:00 AM 6.8474 10.0001
7/2/2021 3:00:00 AM 6.8434 7.4396
7/2/2021 3:15:00 AM 6.8373 7.4612
7/2/2021 3:30:00 AM 6.8323 7.4883
7/2/2021 3:45:00 AM 6.8302 7.2685
7/2/2021 4:00:00 AM 6.8101 7.5082
7/2/2021 4:15:00 AM 6.8043 6.3439
7/2/2021 4:30:00 AM 6.8023 6.4291
7/2/2021 4:45:00 AM 6.7975 6.4135
7/2/2021 5:00:00 AM 6.7938 6.3611
7/2/2021 5:15:00 AM 6.7875 7.0307
7/2/2021 5:30:00 AM 6.782 6.7116
7/2/2021 5:45:00 AM 6.7746 6.6
7/2/2021 6:00:00 AM 6.7684 7.2142
7/2/2021 6:15:00 AM 6.7649 7.3747
7/2/2021 6:30:00 AM 6.7605 7.6784
7/2/2021 6:45:00 AM 6.7534 6.5187
7/2/2021 7:00:00 AM 6.7528 7.0108
7/2/2021 7:15:00 AM 6.7526 9.1193
7/2/2021 7:30:00 AM 6.7532 8.7191
7/2/2021 7:45:00 AM 6.7524 9.8394
7/2/2021 8:00:00 AM 6.7494 9.1572
7/2/2021 8:15:00 AM 6.7492 8.6151
7/2/2021 8:30:00 AM 6.7485 10.4006
7/2/2021 8:45:00 AM 6.7522 7.9
7/2/2021 9:00:00 AM 6.7525 8.5273
7/2/2021 9:15:00 AM 6.7529 6.1322
7/2/2021 9:30:00 AM 6.7545 5.4974
7/2/2021 9:45:00 AM 6.7583 5.4102
7/2/2021 10:00:00 AM 6.7624 5.4219
7/2/2021 10:15:00 AM 6.7678 5.1286
7/2/2021 10:30:00 AM 6.769 5.0291
7/2/2021 10:45:00 AM 6.77 4.988
7/2/2021 11:00:00 AM 6.7717 5.0137
7/2/2021 11:15:00 AM 6.7738 4.9803
7/2/2021 11:30:00 AM 6.7768 4.8742
7/2/2021 11:45:00 AM 6.7788 4.9
7/2/2021 12:00:00 PM 6.7837 5.1358
7/2/2021 12:15:00 PM 6.7891 6.0955
7/2/2021 12:30:00 PM 6.7972 5.2458
7/2/2021 12:45:00 PM 6.8045 5.6447
7/2/2021 1:00:00 PM 6.8117 5.6393
7/2/2021 1:15:00 PM 6.8212 5.1289
7/2/2021 1:30:00 PM 6.8314 5.0278
7/2/2021 1:45:00 PM 6.8402 5.2053
7/2/2021 2:00:00 PM 6.8533 5.6589
7/2/2021 2:15:00 PM 6.8663 5.1972
7/2/2021 2:30:00 PM 6.8745 4.8459
7/2/2021 2:45:00 PM 6.8843 5.0444
7/2/2021 3:00:00 PM 6.8987 5.9929
7/2/2021 3:15:00 PM 6.9141 5.3616
7/2/2021 3:30:00 PM 6.931 5.5294
7/2/2021 3:45:00 PM 6.9469 4.9985
7/2/2021 4:00:00 PM 6.9604 4.7351
7/2/2021 4:15:00 PM 6.969 4.7478
7/2/2021 4:30:00 PM 6.9844 4.7984
7/2/2021 4:45:00 PM 7.0005 4.9731
7/2/2021 5:00:00 PM 7.0205 5.0544
7/2/2021 5:15:00 PM 7.0375 4.9168
7/2/2021 5:30:00 PM 7.0463 4.8461
7/2/2021 5:45:00 PM 7.0532 4.8
7/2/2021 6:00:00 PM 7.0692 4.5539
7/2/2021 6:15:00 PM 7.0821 4.5272
7/2/2021 6:30:00 PM 7.0922 4.674
7/2/2021 6:45:00 PM 7.0975 5.0905
7/2/2021 7:00:00 PM 7.1003 4.5968
7/2/2021 7:15:00 PM 7.1066 4.5369
7/2/2021 7:30:00 PM 7.1097 4.5997
7/2/2021 7:45:00 PM 7.0837 9.2144
7/2/2021 8:00:00 PM 7.1252 10.2688
7/2/2021 8:15:00 PM 7.1646 13.6088
7/2/2021 8:30:00 PM 7.172 11.4531
7/2/2021 8:45:00 PM 7.1722 11.1
7/2/2021 9:00:00 PM 7.2056 344.5419
7/2/2021 9:15:00 PM 7.2901 685.6361
7/2/2021 9:30:00 PM 7.3205 486.3284
7/2/2021 9:45:00 PM 7.226 486.3258
7/2/2021 10:00:00 PM 7.0243 486.3329
7/2/2021 10:15:00 PM 6.9291 486.3397
7/2/2021 10:30:00 PM 6.8829 486.3233
7/2/2021 10:45:00 PM 6.8805 486.3351
7/2/2021 11:00:00 PM 6.8922 486.3281
7/2/2021 11:15:00 PM 6.9012 486.3208
7/2/2021 11:30:00 PM 6.9123 486.3414
7/2/2021 11:45:00 PM 6.9216 486.3
7/3/2021 12:00:00 AM 6.9448 537.0379
7/3/2021 12:15:00 AM 6.9621 332.6484
7/3/2021 12:30:00 AM 6.9663 844.2077
7/3/2021 12:45:00 AM 6.9637 753.8502
7/3/2021 1:00:00 AM 6.9528 672.9214
7/3/2021 1:15:00 AM 6.9397 585.92
7/3/2021 1:30:00 AM 6.928 515.1914
7/3/2021 1:45:00 AM 6.9172 459.7356
7/3/2021 2:00:00 AM 6.9052 436.2963
7/3/2021 2:15:00 AM 6.8884 442.6029
7/3/2021 2:30:00 AM 6.8664 460.6878
7/3/2021 2:45:00 AM 6.8572 464.5002
7/3/2021 3:00:00 AM 6.8259 443.6517
7/3/2021 3:15:00 AM 6.8126 423.4982
7/3/2021 3:30:00 AM 6.7983 399.4229
7/3/2021 3:45:00 AM 6.7861 378.2349
7/3/2021 4:00:00 AM 6.7739 347.0056
7/3/2021 4:15:00 AM 6.7616 315.8897
7/3/2021 4:30:00 AM 6.7515 301.6951
7/3/2021 4:45:00 AM 6.7415 342.7365
7/3/2021 5:00:00 AM 6.7246 456.574
7/3/2021 5:15:00 AM 6.7013 638.7237
7/3/2021 5:30:00 AM 6.6746 931.5175
7/3/2021 5:45:00 AM 6.6626 1000.1
7/3/2021 6:00:00 AM 6.6141 1000.029
7/3/2021 6:15:00 AM 6.5874 1000.03
7/3/2021 6:30:00 AM 6.5676 1000.035
7/3/2021 6:45:00 AM 6.5548 1000.033
7/3/2021 7:00:00 AM 6.5438 1000.027
7/3/2021 7:15:00 AM 6.5392 1000.037
7/3/2021 7:30:00 AM 6.5357 1000.031
7/3/2021 7:45:00 AM 6.5362 1000.035
7/3/2021 8:00:00 AM 6.5387 1000.039
7/3/2021 8:15:00 AM 6.5422 1000.04
7/3/2021 8:30:00 AM 6.5494 893.9296
7/3/2021 8:45:00 AM 6.5576 784.099
7/3/2021 9:00:00 AM 6.5669 533.2222
7/3/2021 9:15:00 AM 6.5723 534.7868
7/3/2021 9:30:00 AM 6.5792 452.9891
7/3/2021 9:45:00 AM 6.5884 387.8817
7/3/2021 10:00:00 AM 6.5953 336.5478
7/3/2021 10:15:00 AM 6.5996 296.3582
7/3/2021 10:30:00 AM 6.6042 259.3454
7/3/2021 10:45:00 AM 6.6087 224.4973
7/3/2021 11:00:00 AM 6.6132 196.4745
7/3/2021 11:15:00 AM 6.6175 175.5285
7/3/2021 11:30:00 AM 6.6192 158.5755
7/3/2021 11:45:00 AM 6.6248 150.3001
7/3/2021 12:00:00 PM 6.6288 123.1897
7/3/2021 12:15:00 PM 6.6365 109.1724
7/3/2021 12:30:00 PM 6.6429 101.2409
7/3/2021 12:45:00 PM 6.6473 95.3095
7/3/2021 1:00:00 PM 6.6478 93.5207
7/3/2021 1:15:00 PM 6.6524 98.15
7/3/2021 1:30:00 PM 6.6538 106.0411
7/3/2021 1:45:00 PM 6.6571 114.1231
7/3/2021 2:00:00 PM 6.6619 125.4326
7/3/2021 2:15:00 PM 6.6584 131.1174
7/3/2021 2:30:00 PM 6.653 134.0431
7/3/2021 2:45:00 PM 6.6523 133.1553
7/3/2021 3:00:00 PM 6.6518 130.5746
7/3/2021 3:15:00 PM 6.655 129.5782
7/3/2021 3:30:00 PM 6.6602 123.0594
7/3/2021 3:45:00 PM 6.6561 113.236
7/3/2021 4:00:00 PM 6.6565 105.4094
7/3/2021 4:15:00 PM 6.6565 97.717
7/3/2021 4:30:00 PM 6.6601 91.2422
7/3/2021 4:45:00 PM 6.6647 82.7473
7/3/2021 5:00:00 PM 6.6712 74.0904
7/3/2021 5:15:00 PM 6.6785 68.9786
7/3/2021 5:30:00 PM 6.6846 65.1428
7/3/2021 5:45:00 PM 6.6836 63.5
7/3/2021 6:00:00 PM 6.6958 56.0481
7/3/2021 6:15:00 PM 6.7044 51.9892
7/3/2021 6:30:00 PM 6.7142 50.0379
7/3/2021 6:45:00 PM 6.7254 46.9182
7/3/2021 7:00:00 PM 6.7361 43.3454
7/3/2021 7:15:00 PM 6.7489 40.7686
7/3/2021 7:30:00 PM 6.759 38.0799
7/3/2021 7:45:00 PM 6.7676 35.8146
7/3/2021 8:00:00 PM 6.7764 33.9613
7/3/2021 8:15:00 PM 6.7849 32.3051
7/3/2021 8:30:00 PM 6.7942 30.8281
7/3/2021 8:45:00 PM 6.7984 29.8
7/3/2021 9:00:00 PM 6.8075 125.5766
7/3/2021 9:15:00 PM 6.7968 48.1703
7/3/2021 9:30:00 PM 6.8199 36.0009
7/3/2021 9:45:00 PM 6.8333 33.7707
7/3/2021 10:00:00 PM 6.8445 31.6461
7/3/2021 10:15:00 PM 6.8538 30.2653
7/3/2021 10:30:00 PM 6.8595 29.7275
7/3/2021 10:45:00 PM 6.8657 28.4692
7/3/2021 11:00:00 PM 6.8699 28.0434
7/3/2021 11:15:00 PM 6.8739 26.9752
7/3/2021 11:30:00 PM 6.8778 27.3255
7/3/2021 11:45:00 PM 6.881 25.8
7/4/2021 12:00:00 AM 6.88 25.064
7/4/2021 12:15:00 AM 6.8843 24.5886
7/4/2021 12:30:00 AM 6.8839 24.2438
7/4/2021 12:45:00 AM 6.8844 24.089
7/4/2021 1:00:00 AM 6.8842 23.6963
7/4/2021 1:15:00 AM 6.8836 23.1196
7/4/2021 1:30:00 AM 6.8843 23.4924
7/4/2021 1:45:00 AM 6.8841 23.3408
7/4/2021 2:00:00 AM 6.882 22.9756
7/4/2021 2:15:00 AM 6.881 22.4543
7/4/2021 2:30:00 AM 6.8806 22.9771
7/4/2021 2:45:00 AM 6.8852 24.0004
7/4/2021 3:00:00 AM 6.8792 25.7984
7/4/2021 3:15:00 AM 6.8792 25.8106
7/4/2021 3:30:00 AM 6.879 24.9866
7/4/2021 3:45:00 AM 6.8792 24.9719
7/4/2021 4:00:00 AM 6.8791 24.8217
7/4/2021 4:15:00 AM 6.8787 25.0191
7/4/2021 4:30:00 AM 6.8787 24.416
7/4/2021 4:45:00 AM 6.879 24.4281
7/4/2021 5:00:00 AM 6.8795 25.4154
7/4/2021 5:15:00 AM 6.8789 25.042
7/4/2021 5:30:00 AM 6.8792 24.6359
7/4/2021 5:45:00 AM 6.8852 23.9
7/4/2021 6:00:00 AM 6.8827 23.5512
7/4/2021 6:15:00 AM 6.8855 23.2854
7/4/2021 6:30:00 AM 6.8867 23.3768
7/4/2021 6:45:00 AM 6.8686 20.8137
7/4/2021 7:00:00 AM 6.8686 19.6799
7/4/2021 7:15:00 AM 6.8734 18.543
7/4/2021 7:30:00 AM 6.8799 17.5301
7/4/2021 7:45:00 AM 6.8843 16.9673
7/4/2021 8:00:00 AM 6.8887 16.4248
7/4/2021 8:15:00 AM 6.8923 15.8498
7/4/2021 8:30:00 AM 6.8976 18.0492
7/4/2021 8:45:00 AM 6.9006 20.5
7/4/2021 9:00:00 AM 6.9049 19.7113
7/4/2021 9:15:00 AM 6.9079 19.8975
7/4/2021 9:30:00 AM 6.9126 19.3677
7/4/2021 9:45:00 AM 6.913 18.5373
7/4/2021 10:00:00 AM 6.9158 19.0551
7/4/2021 10:15:00 AM 6.9169 18.4298
7/4/2021 10:30:00 AM 6.921 17.773
7/4/2021 10:45:00 AM 6.9242 17.1396
7/4/2021 11:00:00 AM 6.926 16.7747
7/4/2021 11:15:00 AM 6.9268 16.5575
7/4/2021 11:30:00 AM 6.9267 16.1065
7/4/2021 11:45:00 AM 6.9244 15.7
7/4/2021 12:00:00 PM 6.9301 15.5375
7/4/2021 12:15:00 PM 6.9326 16.1843
7/4/2021 12:30:00 PM 6.9359 15.3819
7/4/2021 12:45:00 PM 6.9348 14.9329
7/4/2021 1:00:00 PM 6.938 14.2275
7/4/2021 1:15:00 PM 6.9398 14.0653
7/4/2021 1:30:00 PM 6.9398 14.0134
7/4/2021 1:45:00 PM 6.9417 14.1005
7/4/2021 2:00:00 PM 6.9415 14.1111
7/4/2021 2:15:00 PM 6.9441 13.9566
7/4/2021 2:30:00 PM 6.946 13.7767
7/4/2021 2:45:00 PM 6.9471 13.309
7/4/2021 3:00:00 PM 6.951 13.3498
7/4/2021 3:15:00 PM 6.9511 13.3438
7/4/2021 3:30:00 PM 6.956 13.1116
7/4/2021 3:45:00 PM 6.9556 12.8669
7/4/2021 4:00:00 PM 6.956 12.8439
7/4/2021 4:15:00 PM 6.9587 12.7446
7/4/2021 4:30:00 PM 6.9595 12.855
7/4/2021 4:45:00 PM 6.9573 12.9208
7/4/2021 5:00:00 PM 6.9578 12.9946
7/4/2021 5:15:00 PM 6.9599 12.9401
7/4/2021 5:30:00 PM 6.9608 12.9572
7/4/2021 5:45:00 PM 6.9622 12.8
7/4/2021 6:00:00 PM 6.9608 13.0453
7/4/2021 6:15:00 PM 6.9609 12.6716
7/4/2021 6:30:00 PM 6.9648 13.0823
7/4/2021 6:45:00 PM 6.9657 12.9314
7/4/2021 7:00:00 PM 6.9653 12.6572
7/4/2021 7:15:00 PM 6.9653 13.0094
7/4/2021 7:30:00 PM 6.9651 13.0087
7/4/2021 7:45:00 PM 6.9643 12.884
7/4/2021 8:00:00 PM 6.9604 13.2257
7/4/2021 8:15:00 PM 6.9599 13.2217
7/4/2021 8:30:00 PM 6.9561 13.1403
7/4/2021 8:45:00 PM 6.958 13.1
7/4/2021 9:00:00 PM 6.9512 13.8779
7/4/2021 9:15:00 PM 6.9489 14.1401
7/4/2021 9:30:00 PM 6.9462 14.7424
7/4/2021 9:45:00 PM 6.9423 15.0467
7/4/2021 10:00:00 PM 6.9351 16.0036
7/4/2021 10:15:00 PM 6.9178 18.8153
7/4/2021 10:30:00 PM 6.9351 18.7264
7/4/2021 10:45:00 PM 6.9427 19.2921
7/4/2021 11:00:00 PM 6.9441 19.4716
7/4/2021 11:15:00 PM 6.9439 18.8278
7/4/2021 11:30:00 PM 6.9423 18.4304
7/4/2021 11:45:00 PM 6.9398 18.5
7/5/2021 12:00:00 AM 6.9411 18.0425
7/5/2021 12:15:00 AM 6.9368 18.0042
7/5/2021 12:30:00 AM 6.9334 17.6402
7/5/2021 12:45:00 AM 6.9297 17.8021
7/5/2021 1:00:00 AM 6.9266 17.9195
7/5/2021 1:15:00 AM 6.9222 18.1231
7/5/2021 1:30:00 AM 6.9205 18.3743
7/5/2021 1:45:00 AM 6.9175 17.7187
7/5/2021 2:00:00 AM 6.9149 17.579
7/5/2021 2:15:00 AM 6.9126 17.5169
7/5/2021 2:30:00 AM 6.9083 17.3089
7/5/2021 2:45:00 AM 6.909 17.7999
7/5/2021 3:00:00 AM 6.9049 17.6059
7/5/2021 3:15:00 AM 6.9029 17.2392
7/5/2021 3:30:00 AM 6.9008 18.0554
7/5/2021 3:45:00 AM 6.8986 17.9375
7/5/2021 4:00:00 AM 6.8968 18.0182
7/5/2021 4:15:00 AM 6.8936 18.149
7/5/2021 4:30:00 AM 6.8929 17.7953
7/5/2021 4:45:00 AM 6.8889 18.2879
7/5/2021 5:00:00 AM 6.8885 19.1436
7/5/2021 5:15:00 AM 6.8847 18.778
7/5/2021 5:30:00 AM 6.884 18.054
7/5/2021 5:45:00 AM 6.8838 17.4999
7/5/2021 6:00:00 AM 6.8645 15.8132
7/5/2021 6:15:00 AM 6.865 14.9936
7/5/2021 6:30:00 AM 6.865 14.4724
7/5/2021 6:45:00 AM 6.8649 14.026
7/5/2021 7:00:00 AM 6.8655 13.7392
7/5/2021 7:15:00 AM 6.865 13.337
7/5/2021 7:30:00 AM 6.8646 13.2569
7/5/2021 7:45:00 AM 6.8674 14.755
7/5/2021 8:00:00 AM 6.8684 13.2041
7/5/2021 8:15:00 AM 6.8698 12.8863
7/5/2021 8:30:00 AM 6.8699 12.9359
7/5/2021 8:45:00 AM 6.8726 12.4
7/5/2021 9:00:00 AM 6.8697 12.8994
7/5/2021 9:15:00 AM 6.8702 12.643
7/5/2021 9:30:00 AM 6.8737 11.7469
7/5/2021 9:45:00 AM 6.8746 11.3392
7/5/2021 10:00:00 AM 6.8746 11.5145
7/5/2021 10:15:00 AM 6.8772 11.3609
7/5/2021 10:30:00 AM 6.8803 11.3463
7/5/2021 10:45:00 AM 6.8837 10.9229
7/5/2021 11:00:00 AM 6.8878 10.7283
7/5/2021 11:15:00 AM 6.8912 10.4781
7/5/2021 11:30:00 AM 6.8958 10.4509
7/5/2021 11:45:00 AM 6.8992 10.2
7/5/2021 12:00:00 PM 6.906 10.0657
7/5/2021 12:15:00 PM 6.9114 9.9479
7/5/2021 12:30:00 PM 6.9183 9.8034
7/5/2021 12:45:00 PM 6.9248 11.6023
7/5/2021 1:00:00 PM 6.9327 13.1151
7/5/2021 1:15:00 PM 6.9435 10.6268
7/5/2021 1:30:00 PM 6.9527 9.9843
7/5/2021 1:45:00 PM 6.9628 9.913
7/5/2021 2:00:00 PM 6.9749 9.8858
7/5/2021 2:15:00 PM 6.9893 10.2303
7/5/2021 2:30:00 PM 7.0035 11.0378
7/5/2021 2:45:00 PM 7.0208 10.5771
7/5/2021 3:00:00 PM 7.0329 9.8244
7/5/2021 3:15:00 PM 7.0469 9.3326
7/5/2021 3:30:00 PM 7.0631 9.097
7/5/2021 3:45:00 PM 7.0757 8.9073
7/5/2021 4:00:00 PM 7.0879 9.1335
7/5/2021 4:15:00 PM 7.1 9.6459
7/5/2021 4:30:00 PM 7.1121 9.7143
7/5/2021 4:45:00 PM 7.1219 10.6322
7/5/2021 5:00:00 PM 7.1302 9.87
7/5/2021 5:15:00 PM 7.1416 9.0308
7/5/2021 5:30:00 PM 7.151 9.3936
7/5/2021 5:45:00 PM 7.1596 9.2999
7/5/2021 6:00:00 PM 7.1689 8.7222
7/5/2021 6:15:00 PM 7.1752 9.0077
7/5/2021 6:30:00 PM 7.1803 8.8396
7/5/2021 6:45:00 PM 7.1825 8.496
7/5/2021 7:00:00 PM 7.1861 8.3939
7/5/2021 7:15:00 PM 7.1866 8.0604
7/5/2021 7:30:00 PM 7.1867 8.2027
7/5/2021 7:45:00 PM 7.1826 8.1163
7/5/2021 8:00:00 PM 7.1796 8.1746
7/5/2021 8:15:00 PM 7.1744 8.1363
7/5/2021 8:30:00 PM 7.1684 8.2325
7/5/2021 8:45:00 PM 7.1624 8.1
7/5/2021 9:00:00 PM 7.1476 9.1168
7/5/2021 9:15:00 PM 7.1388 9.1055
7/5/2021 9:30:00 PM 7.1315 9.5915
7/5/2021 9:45:00 PM 7.1103 15.2869
7/5/2021 10:00:00 PM 7.1131 14.1509
7/5/2021 10:15:00 PM 7.1139 13.1788
7/5/2021 10:30:00 PM 7.1115 13.5956
7/5/2021 10:45:00 PM 7.1046 12.8345
7/5/2021 11:00:00 PM 7.0974 12.6086
7/5/2021 11:15:00 PM 7.0886 12.4162
7/5/2021 11:30:00 PM 7.0785 13.1765
7/5/2021 11:45:00 PM 7.07 14.5999
7/6/2021 12:00:00 AM 7.0581 16.5296
7/6/2021 12:15:00 AM 7.0482 14.1081
7/6/2021 12:30:00 AM 7.0388 13.0022
7/6/2021 12:45:00 AM 7.0288 12.5804
7/6/2021 1:00:00 AM 7.0179 14.5935
7/6/2021 1:15:00 AM 7.0079 13.4634
7/6/2021 1:30:00 AM 6.9973 13.1072
7/6/2021 1:45:00 AM 6.9876 12.1437
7/6/2021 2:00:00 AM 6.9786 12.3353
7/6/2021 2:15:00 AM 6.969 12.5025
7/6/2021 2:30:00 AM 6.96 15.7249
7/6/2021 2:45:00 AM 6.958 15.6998
7/6/2021 3:00:00 AM 6.9431 15.349
7/6/2021 3:15:00 AM 6.9342 14.8455
7/6/2021 3:30:00 AM 6.9258 15.8754
7/6/2021 3:45:00 AM 6.9172 15.7729
7/6/2021 4:00:00 AM 6.9105 14.9124
7/6/2021 4:15:00 AM 6.9039 13.3542
7/6/2021 4:30:00 AM 6.8933 13.8832
7/6/2021 4:45:00 AM 6.8829 12.3199
7/6/2021 5:00:00 AM 6.8756 12.2941
7/6/2021 5:15:00 AM 6.8711 11.8222
7/6/2021 5:30:00 AM 6.8654 11.9871
7/6/2021 5:45:00 AM 6.8642 11.2
7/6/2021 6:00:00 AM 6.8571 11.2343
7/6/2021 6:15:00 AM 6.8549 10.6683
7/6/2021 6:30:00 AM 6.8504 11.0918
7/6/2021 6:45:00 AM 6.8468 10.3656
7/6/2021 7:00:00 AM 6.8451 10.6373
7/6/2021 7:15:00 AM 6.8455 9.7772
7/6/2021 7:30:00 AM 6.8451 10.5935
7/6/2021 7:45:00 AM 6.8452 9.8113
7/6/2021 8:00:00 AM 6.845 10.0316
7/6/2021 8:15:00 AM 6.8449 9.6931
7/6/2021 8:30:00 AM 6.8464 10.4615
7/6/2021 8:45:00 AM 6.8474 10.2
7/6/2021 9:00:00 AM 6.8489 11.5251
7/6/2021 9:15:00 AM 6.8498 10.7425
7/6/2021 9:30:00 AM 6.8547 10.439
7/6/2021 9:45:00 AM 6.8601 9.7015
7/6/2021 10:00:00 AM 6.8647 10.1845
7/6/2021 10:15:00 AM 6.8706 10.113
7/6/2021 10:30:00 AM 6.8755 10.5894
7/6/2021 10:45:00 AM 6.8814 8.2712
7/6/2021 11:00:00 AM 6.8878 9.1715
7/6/2021 11:15:00 AM 6.8969 7.8759
7/6/2021 11:30:00 AM 6.9093 9.3334
7/6/2021 11:45:00 AM 6.9188 8.3
7/6/2021 12:00:00 PM 6.9253 8.7078
7/6/2021 12:15:00 PM 6.9366 7.3756
7/6/2021 12:30:00 PM 6.9456 8.4912
7/6/2021 12:45:00 PM 6.9592 7.4895
7/6/2021 1:00:00 PM 6.9718 8.488
7/6/2021 1:15:00 PM 6.9848 7.9633
7/6/2021 1:30:00 PM 6.9994 9.3358
7/6/2021 1:45:00 PM 7.01 8.9767
7/6/2021 2:00:00 PM 7.0236 11.0029
7/6/2021 2:15:00 PM 7.0395 10.3724
7/6/2021 2:30:00 PM 7.054 9.7889
7/6/2021 2:45:00 PM 7.0682 8.0636
7/6/2021 3:00:00 PM 7.0848 7.9676
7/6/2021 3:15:00 PM 7.103 6.4669
7/6/2021 3:30:00 PM 7.1141 7.8695
7/6/2021 3:45:00 PM 7.12 10.0858
7/6/2021 4:00:00 PM 7.1187 9.6101
7/6/2021 4:15:00 PM 7.119 7.6344
7/6/2021 4:30:00 PM 7.1254 7.7254
7/6/2021 4:45:00 PM 7.1324 6.4669
7/6/2021 5:00:00 PM 7.1399 7.5474
7/6/2021 5:15:00 PM 7.1461 6.7227
7/6/2021 5:30:00 PM 7.1519 7.5212
7/6/2021 5:45:00 PM 7.1512 7.2999
7/6/2021 6:00:00 PM 7.1606 8.0303
7/6/2021 6:15:00 PM 7.1627 7.8932
7/6/2021 6:30:00 PM 7.1609 9.5866
7/6/2021 6:45:00 PM 7.1539 8.9815
7/6/2021 7:00:00 PM 7.1528 9.8089
7/6/2021 7:15:00 PM 7.1489 8.4225
7/6/2021 7:30:00 PM 7.1448 9.208
7/6/2021 7:45:00 PM 7.1369 9.7789
7/6/2021 8:00:00 PM 7.1264 12.6327
7/6/2021 8:15:00 PM 7.1131 13.5947
7/6/2021 8:30:00 PM 7.1008 14.5349
7/6/2021 8:45:00 PM 7.0952 14.2
7/6/2021 9:00:00 PM 7.076 13.4891
7/6/2021 9:15:00 PM 7.0621 12.1122
7/6/2021 9:30:00 PM 7.0481 11.2622
7/6/2021 9:45:00 PM 7.0246 10.4917
7/6/2021 10:00:00 PM 7.0231 10.3856
7/6/2021 10:15:00 PM 7.0209 9.6289
7/6/2021 10:30:00 PM 7.0178 10.5109
7/6/2021 10:45:00 PM 7.0126 9.9942
7/6/2021 11:00:00 PM 7.008 10.4777
7/6/2021 11:15:00 PM 7.0018 10.457
7/6/2021 11:30:00 PM 6.9955 11.2717
7/6/2021 11:45:00 PM 6.9916 10.6
7/7/2021 12:00:00 AM 6.9819 11.4093
7/7/2021 12:15:00 AM 6.9748 11.674
7/7/2021 12:30:00 AM 6.967 11.9473
7/7/2021 12:45:00 AM 6.9618 11.4305
7/7/2021 1:00:00 AM 6.9551 11.5997
7/7/2021 1:15:00 AM 6.9485 12.0285
7/7/2021 1:30:00 AM 6.9432 12.1293
7/7/2021 1:45:00 AM 6.9369 11.2225
7/7/2021 2:00:00 AM 6.9317 11.169
7/7/2021 2:15:00 AM 6.9259 10.7194
7/7/2021 2:30:00 AM 6.9202 10.7893
7/7/2021 2:45:00 AM 6.9188 10.8001
7/7/2021 3:00:00 AM 6.9111 10.6326
7/7/2021 3:15:00 AM 6.9056 9.9691
7/7/2021 3:30:00 AM 6.9003 10.4912
7/7/2021 3:45:00 AM 6.8953 10.1326
7/7/2021 4:00:00 AM 6.8908 10.751
7/7/2021 4:15:00 AM 6.882 9.8366
7/7/2021 4:30:00 AM 6.8665 10.4618
7/7/2021 4:45:00 AM 6.8621 9.5002
7/7/2021 5:00:00 AM 6.8567 10.7223
7/7/2021 5:15:00 AM 6.8535 9.7701
7/7/2021 5:30:00 AM 6.8508 10.3748
7/7/2021 5:45:00 AM 6.8516 9.9
7/7/2021 6:00:00 AM 6.8454 10.3394
7/7/2021 6:15:00 AM 6.8447 9.251
7/7/2021 6:30:00 AM 6.8418 9.7657
7/7/2021 6:45:00 AM 6.8402 8.2093
7/7/2021 7:00:00 AM 6.8399 8.2332
7/7/2021 7:15:00 AM 6.8403 7.5514
7/7/2021 7:30:00 AM 6.8393 7.9137
7/7/2021 7:45:00 AM 6.8402 6.9579
7/7/2021 8:00:00 AM 6.8401 7.2083
7/7/2021 8:15:00 AM 6.84 6.8574
7/7/2021 8:30:00 AM 6.8436 7.3915
7/7/2021 8:45:00 AM 6.8418 7.1999
7/7/2021 9:00:00 AM 6.8406 8.1234
7/7/2021 9:15:00 AM 6.8437 7.0697
7/7/2021 9:30:00 AM 6.8458 7.5703
7/7/2021 9:45:00 AM 6.8504 7.1959
7/7/2021 10:00:00 AM 6.855 7.7697
7/7/2021 10:15:00 AM 6.8591 7.0813
7/7/2021 10:30:00 AM 6.8653 7.6296
7/7/2021 10:45:00 AM 6.8713 6.8642
7/7/2021 11:00:00 AM 6.8784 7.3245
7/7/2021 11:15:00 AM 6.8866 6.881
7/7/2021 11:30:00 AM 6.8923 6.8418
7/7/2021 11:45:00 AM 6.8936 6.5
7/7/2021 12:00:00 PM 6.9055 7.132
7/7/2021 12:15:00 PM 6.9102 7.5592
7/7/2021 12:30:00 PM 6.9185 7.5075
7/7/2021 12:45:00 PM 6.9266 6.6469
7/7/2021 1:00:00 PM 6.9359 7.1811
7/7/2021 1:15:00 PM 6.9477 6.8855
7/7/2021 1:30:00 PM 6.9617 7.0548
7/7/2021 1:45:00 PM 6.9745 6.7665
7/7/2021 2:00:00 PM 6.989 7.113
7/7/2021 2:15:00 PM 7.0008 7.3373
7/7/2021 2:30:00 PM 7.0147 6.2214
7/7/2021 2:45:00 PM 7.0295 5.5867
7/7/2021 3:00:00 PM 7.0466 5.7106
7/7/2021 3:15:00 PM 7.064 4.9823
7/7/2021 3:30:00 PM 7.0807 5.2406
7/7/2021 3:45:00 PM 7.0985 4.6153
7/7/2021 4:00:00 PM 7.1174 4.9177
7/7/2021 4:15:00 PM 7.1374 4.3064
7/7/2021 4:30:00 PM 7.1535 4.4385
7/7/2021 4:45:00 PM 7.1697 3.9791
7/7/2021 5:00:00 PM 7.1841 4.1577
7/7/2021 5:15:00 PM 7.199 3.4016
7/7/2021 5:30:00 PM 7.2119 3.6413
7/7/2021 5:45:00 PM 7.217 3.5
7/7/2021 6:00:00 PM 7.232 3.7335
7/7/2021 6:15:00 PM 7.2401 3.191
7/7/2021 6:30:00 PM 7.2504 3.3691
7/7/2021 6:45:00 PM 7.2567 2.9384
7/7/2021 7:00:00 PM 7.2632 3.2992
7/7/2021 7:15:00 PM 7.2644 2.8756
7/7/2021 7:30:00 PM 7.2645 3.1677
7/7/2021 7:45:00 PM 7.261 2.6829
7/7/2021 8:00:00 PM 7.258 2.9926
7/7/2021 8:15:00 PM 7.2523 2.7026
7/7/2021 8:30:00 PM 7.249 3.1659
7/7/2021 8:45:00 PM 7.245 2.9
7/7/2021 9:00:00 PM 7.2361 3.3591
7/7/2021 9:15:00 PM 7.2277 2.6714
7/7/2021 9:30:00 PM 7.2199 3.1129
7/7/2021 9:45:00 PM 7.2119 2.8517
7/7/2021 10:00:00 PM 7.1924 3.1692
7/7/2021 10:15:00 PM 7.1692 2.821
7/7/2021 10:30:00 PM 7.1765 3.2555
7/7/2021 10:45:00 PM 7.171 2.9836
7/7/2021 11:00:00 PM 7.1619 3.3215
7/7/2021 11:15:00 PM 7.1518 3.1232
7/7/2021 11:30:00 PM 7.138 3.4471
7/7/2021 11:45:00 PM 7.126 3.3
7/8/2021 12:00:00 AM 7.103 3.4008
7/8/2021 12:15:00 AM 7.0873 3.1057
7/8/2021 12:30:00 AM 7.0721 3.3904
7/8/2021 12:45:00 AM 7.0579 2.9927
7/8/2021 1:00:00 AM 7.044 3.3621
7/8/2021 1:15:00 AM 7.0299 3.2035
7/8/2021 1:30:00 AM 7.0152 3.4341
7/8/2021 1:45:00 AM 6.9987 3.088
7/8/2021 2:00:00 AM 6.984 3.3537
7/8/2021 2:15:00 AM 6.9692 3.1233
7/8/2021 2:30:00 AM 6.9555 3.4485
7/8/2021 2:45:00 AM 6.951 3.3
7/8/2021 3:00:00 AM 6.9285 3.5703
7/8/2021 3:15:00 AM 6.9164 3.1312
7/8/2021 3:30:00 AM 6.9041 3.3259
7/8/2021 3:45:00 AM 6.8831 3.153
7/8/2021 4:00:00 AM 6.8736 3.4688
7/8/2021 4:15:00 AM 6.8599 3.3175
7/8/2021 4:30:00 AM 6.8459 3.6549
7/8/2021 4:45:00 AM 6.834 3.3793
7/8/2021 5:00:00 AM 6.8234 3.6274
7/8/2021 5:15:00 AM 6.8146 3.2482
7/8/2021 5:30:00 AM 6.8069 3.637
7/8/2021 5:45:00 AM 6.8026 3.5
7/8/2021 6:00:00 AM 6.7919 3.7724
7/8/2021 6:15:00 AM 6.7843 3.3797
7/8/2021 6:30:00 AM 6.779 3.7225
7/8/2021 6:45:00 AM 6.7723 8.9599
7/8/2021 7:00:00 AM 6.7667 8.96
7/8/2021 7:15:00 AM 6.7622 16.8892
7/8/2021 7:30:00 AM 6.7576 16.3104
7/8/2021 7:45:00 AM 6.7578 19.9683
7/8/2021 8:00:00 AM 6.7575 19.0882
7/8/2021 8:15:00 AM 6.7514 22.6792
7/8/2021 8:30:00 AM 6.763 19.0259
7/8/2021 8:45:00 AM 6.7704 18.7
7/8/2021 9:00:00 AM 6.7781 17.2076
7/8/2021 9:15:00 AM 6.786 15.788
7/8/2021 9:30:00 AM 6.7951 15.5949
7/8/2021 9:45:00 AM 6.8072 15.1439
7/8/2021 10:00:00 AM 6.8104 14.5329
7/8/2021 10:15:00 AM 6.817 13.9018
7/8/2021 10:30:00 AM 6.8244 13.5818
7/8/2021 10:45:00 AM 6.8334 12.7179
7/8/2021 11:00:00 AM 6.8416 13.0488
7/8/2021 11:15:00 AM 6.8525 11.9595
7/8/2021 11:30:00 AM 6.8645 11.6906
7/8/2021 11:45:00 AM 6.8698 11.9
7/8/2021 12:00:00 PM 6.8835 12.1496
7/8/2021 12:15:00 PM 6.8901 11.7446
7/8/2021 12:30:00 PM 6.897 11.0868
7/8/2021 12:45:00 PM 6.9045 11.072
7/8/2021 1:00:00 PM 6.9116 10.6496
7/8/2021 1:15:00 PM 6.9198 10.5451
7/8/2021 1:30:00 PM 6.9003 10.5032
7/8/2021 1:45:00 PM 6.9047 9.8641
7/8/2021 2:00:00 PM 6.9144 9.7722
7/8/2021 2:15:00 PM 6.9204 9.7497
7/8/2021 2:30:00 PM 6.9217 10.2397
7/8/2021 2:45:00 PM 6.918 11.003
7/8/2021 3:00:00 PM 6.9088 12.043
7/8/2021 3:15:00 PM 6.8955 13.1538
7/8/2021 3:30:00 PM 6.878 14.8396
7/8/2021 3:45:00 PM 6.8562 16.9285
7/8/2021 4:00:00 PM 6.8304 18.8962
7/8/2021 4:15:00 PM 6.8039 19.359
7/8/2021 4:30:00 PM 6.7797 17.4508
7/8/2021 4:45:00 PM 6.7591 18.4827
7/8/2021 5:00:00 PM 6.7429 19.3204
7/8/2021 5:15:00 PM 6.7272 20.26
7/8/2021 5:30:00 PM 6.7123 20.7937
7/8/2021 5:45:00 PM 6.706 21.2
7/8/2021 6:00:00 PM 6.6844 22.0943
7/8/2021 6:15:00 PM 6.6715 22.4283
7/8/2021 6:30:00 PM 6.6603 22.5864
7/8/2021 6:45:00 PM 6.6509 22.5916
7/8/2021 7:00:00 PM 6.6433 22.2215
7/8/2021 7:15:00 PM 6.637 21.791
7/8/2021 7:30:00 PM 6.6313 21.3366
7/8/2021 7:45:00 PM 6.6278 21.3951
7/8/2021 8:00:00 PM 6.6257 20.3615
7/8/2021 8:15:00 PM 6.6232 20.7989
7/8/2021 8:30:00 PM 6.6212 21.5829
7/8/2021 8:45:00 PM 6.6192 21.7
7/8/2021 9:00:00 PM 6.6183 20.422
7/8/2021 9:15:00 PM 6.6182 19.1514
7/8/2021 9:30:00 PM 6.618 19.0545
7/8/2021 9:45:00 PM 6.6186 17.9907
7/8/2021 10:00:00 PM 6.6188 17.5385
7/8/2021 10:15:00 PM 6.6286 21.2811
7/8/2021 10:30:00 PM 6.6438 17.8748
7/8/2021 10:45:00 PM 6.6483 17.6838
7/8/2021 11:00:00 PM 6.6516 18.6837
7/8/2021 11:15:00 PM 6.6534 16.3648
7/8/2021 11:30:00 PM 6.6567 16.8051
7/8/2021 11:45:00 PM 6.657 16.1
7/9/2021 12:00:00 AM 6.6611 20.3972
7/9/2021 12:15:00 AM 6.6609 20.2387
7/9/2021 12:30:00 AM 6.6629 19.5623
7/9/2021 12:45:00 AM 6.6661 18.9578
7/9/2021 1:00:00 AM 6.6665 18.554
7/9/2021 1:15:00 AM 6.6678 18.3971
7/9/2021 1:30:00 AM 6.6711 18.3789
7/9/2021 1:45:00 AM 6.6725 18.7906
7/9/2021 2:00:00 AM 6.675 18.4585
7/9/2021 2:15:00 AM 6.6762 18.0558
7/9/2021 2:30:00 AM 6.6773 18.4005
7/9/2021 2:45:00 AM 6.6766 18.0999
7/9/2021 3:00:00 AM 6.6815 17.0962
7/9/2021 3:15:00 AM 6.6855 16.3559
7/9/2021 3:30:00 AM 6.6863 15.8761
7/9/2021 3:45:00 AM 6.687 16.2646
7/9/2021 4:00:00 AM 6.69 16.1854
7/9/2021 4:15:00 AM 6.6925 16.4704
7/9/2021 4:30:00 AM 6.6953 16.4825
7/9/2021 4:45:00 AM 6.6854 16.475
7/9/2021 5:00:00 AM 6.6807 15.1168
7/9/2021 5:15:00 AM 6.6816 14.8988
7/9/2021 5:30:00 AM 6.6855 14.4354
7/9/2021 5:45:00 AM 6.685 14.5
7/9/2021 6:00:00 AM 6.69 13.8951
7/9/2021 6:15:00 AM 6.6918 14.1427
7/9/2021 6:30:00 AM 6.695 13.8515
7/9/2021 6:45:00 AM 6.6964 13.1774
7/9/2021 7:00:00 AM 6.7001 12.6701
7/9/2021 7:15:00 AM 6.6997 12.4133
7/9/2021 7:30:00 AM 6.7024 12.3205
7/9/2021 7:45:00 AM 6.705 12.1922
7/9/2021 8:00:00 AM 6.7094 12.0029
7/9/2021 8:15:00 AM 6.7102 11.9789
7/9/2021 8:30:00 AM 6.7133 11.7492
7/9/2021 8:45:00 AM 6.7172 11.9
7/9/2021 9:00:00 AM 6.7184 11.6093
7/9/2021 9:15:00 AM 6.7201 11.4223
7/9/2021 9:30:00 AM 6.7244 11.3074
7/9/2021 9:45:00 AM 6.7248 10.9992
7/9/2021 10:00:00 AM 6.7286 10.8404
7/9/2021 10:15:00 AM 6.729 11.186
7/9/2021 10:30:00 AM 6.7287 11.1728
7/9/2021 10:45:00 AM 6.7303 11.0767
7/9/2021 11:00:00 AM 6.7301 10.9487
7/9/2021 11:15:00 AM 6.7329 11.1887
7/9/2021 11:30:00 AM 6.7309 10.7473
7/9/2021 11:45:00 AM 6.7298 10.6
7/9/2021 12:00:00 PM 6.7375 10.4294
7/9/2021 12:15:00 PM 6.7383 10.8968
7/9/2021 12:30:00 PM 6.7416 10.8208
7/9/2021 12:45:00 PM 6.7438 10.9917
7/9/2021 1:00:00 PM 6.7459 11.1538
7/9/2021 1:15:00 PM 6.7469 10.7038
7/9/2021 1:30:00 PM 6.7518 10.2059
7/9/2021 1:45:00 PM 6.7548 9.8794
7/9/2021 2:00:00 PM 6.761 9.7482
7/9/2021 2:15:00 PM 6.7662 10.069
7/9/2021 2:30:00 PM 6.7713 9.899
7/9/2021 2:45:00 PM 6.7752 9.7029
7/9/2021 3:00:00 PM 6.7804 9.5593
7/9/2021 3:15:00 PM 6.7852 9.5149
7/9/2021 3:30:00 PM 6.79 9.3521
7/9/2021 3:45:00 PM 6.7952 9.5086
7/9/2021 4:00:00 PM 6.8045 9.6592
7/9/2021 4:15:00 PM 6.8137 9.718
7/9/2021 4:30:00 PM 6.8204 9.7284
7/9/2021 4:45:00 PM 6.8249 9.6078
7/9/2021 5:00:00 PM 6.8269 9.4555
7/9/2021 5:15:00 PM 6.8322 9.3324
7/9/2021 5:30:00 PM 6.839 9.2378
7/9/2021 5:45:00 PM 6.839 9.3
7/9/2021 6:00:00 PM 6.8523 9.0232
7/9/2021 6:15:00 PM 6.8586 9.1736
7/9/2021 6:30:00 PM 6.8637 9.1353
7/9/2021 6:45:00 PM 6.8672 9.0514
7/9/2021 7:00:00 PM 6.869 9.0209
7/9/2021 7:15:00 PM 6.8696 9.1878
7/9/2021 7:30:00 PM 6.8737 9.1429
7/9/2021 7:45:00 PM 6.8741 9.3168
7/9/2021 8:00:00 PM 6.8739 9.4535
7/9/2021 8:15:00 PM 6.8724 9.4388
7/9/2021 8:30:00 PM 6.8691 9.9116
7/9/2021 8:45:00 PM 6.8656 10.1
7/9/2021 9:00:00 PM 6.8621 10.6849
7/9/2021 9:15:00 PM 6.8567 11.6215
7/9/2021 9:30:00 PM 6.8508 12.8551
7/9/2021 9:45:00 PM 6.844 13.5697
7/9/2021 10:00:00 PM 6.8327 15.3134
7/9/2021 10:15:00 PM 6.8152 19.1404
7/9/2021 10:30:00 PM 6.8245 18.5445
7/9/2021 10:45:00 PM 6.825 18.1633
7/9/2021 11:00:00 PM 6.8236 17.8212
7/9/2021 11:15:00 PM 6.8196 17.904
7/9/2021 11:30:00 PM 6.8153 17.8205
7/9/2021 11:45:00 PM 6.8124 17.2
7/10/2021 12:00:00 AM 6.8092 16.758
7/10/2021 12:15:00 AM 6.8055 16.2512
7/10/2021 12:30:00 AM 6.8033 15.7161
7/10/2021 12:45:00 AM 6.8003 15.8629
7/10/2021 1:00:00 AM 6.7983 15.6988
7/10/2021 1:15:00 AM 6.7957 15.7304
7/10/2021 1:30:00 AM 6.7956 15.4448
7/10/2021 1:45:00 AM 6.7926 15.0805
7/10/2021 2:00:00 AM 6.7915 14.6398
7/10/2021 2:15:00 AM 6.7911 14.5685
7/10/2021 2:30:00 AM 6.7911 14.3117
7/10/2021 2:45:00 AM 6.7914 14.0002
7/10/2021 3:00:00 AM 6.7859 14.0815
7/10/2021 3:15:00 AM 6.7731 13.1349
7/10/2021 3:30:00 AM 6.7718 12.5007
7/10/2021 3:45:00 AM 6.7715 12.4782
7/10/2021 4:00:00 AM 6.7719 12.4826
7/10/2021 4:15:00 AM 6.7723 12.3218
7/10/2021 4:30:00 AM 6.7757 12.3334
7/10/2021 4:45:00 AM 6.7768 12.4094
7/10/2021 5:00:00 AM 6.7765 12.6491
7/10/2021 5:15:00 AM 6.7778 12.8084
7/10/2021 5:30:00 AM 6.78 12.807
7/10/2021 5:45:00 AM 6.7802 13.1
7/10/2021 6:00:00 AM 6.7816 12.3874
7/10/2021 6:15:00 AM 6.7815 12.1449
7/10/2021 6:30:00 AM 6.7817 11.7867
7/10/2021 6:45:00 AM 6.7854 11.5163
7/10/2021 7:00:00 AM 6.7864 11.2824
7/10/2021 7:15:00 AM 6.7866 11.1194
7/10/2021 7:30:00 AM 6.7862 10.9326
7/10/2021 7:45:00 AM 6.786 10.9172
7/10/2021 8:00:00 AM 6.786 10.9464
7/10/2021 8:15:00 AM 6.7869 10.8375
7/10/2021 8:30:00 AM 6.787 10.5261
7/10/2021 8:45:00 AM 6.7928 10.4
7/10/2021 9:00:00 AM 6.7899 10.2191
7/10/2021 9:15:00 AM 6.7909 10.1582
7/10/2021 9:30:00 AM 6.7922 11.546
7/10/2021 9:45:00 AM 6.7964 10.7751
7/10/2021 10:00:00 AM 6.7955 10.0824
7/10/2021 10:15:00 AM 6.7911 9.8908
7/10/2021 10:30:00 AM 6.7914 9.5855
7/10/2021 10:45:00 AM 6.791 9.5743
7/10/2021 11:00:00 AM 6.7914 9.4343
7/10/2021 11:15:00 AM 6.7942 9.4873
7/10/2021 11:30:00 AM 6.7957 9.2808
7/10/2021 11:45:00 AM 6.7956 9.4
7/10/2021 12:00:00 PM 6.7961 8.9776
7/10/2021 12:15:00 PM 6.7984 8.8935
7/10/2021 12:30:00 PM 6.8009 8.7902
7/10/2021 12:45:00 PM 6.8007 8.8537
7/10/2021 1:00:00 PM 6.8055 8.7774
7/10/2021 1:15:00 PM 6.8082 8.8265
7/10/2021 1:30:00 PM 6.8145 8.6734
7/10/2021 1:45:00 PM 6.8154 8.5903
7/10/2021 2:00:00 PM 6.8147 8.653
7/10/2021 2:15:00 PM 6.8187 8.7532
7/10/2021 2:30:00 PM 6.8243 8.6068
7/10/2021 2:45:00 PM 6.8307 8.7162
7/10/2021 3:00:00 PM 6.8355 8.8441
7/10/2021 3:15:00 PM 6.8393 8.8752
7/10/2021 3:30:00 PM 6.846 8.7943
7/10/2021 3:45:00 PM 6.8537 8.9597
7/10/2021 4:00:00 PM 6.8582 10.2481
7/10/2021 4:15:00 PM 6.8624 9.2109
7/10/2021 4:30:00 PM 6.8687 9.0206
7/10/2021 4:45:00 PM 6.8721 9.1338
7/10/2021 5:00:00 PM 6.8781 8.9809
7/10/2021 5:15:00 PM 6.8856 9.0361
7/10/2021 5:30:00 PM 6.892 9.0263
7/10/2021 5:45:00 PM 6.8992 9
7/10/2021 6:00:00 PM 6.9101 8.9268
7/10/2021 6:15:00 PM 6.9202 8.8117
7/10/2021 6:30:00 PM 6.9254 8.7292
7/10/2021 6:45:00 PM 6.9317 8.6501
7/10/2021 7:00:00 PM 6.9373 8.7414
7/10/2021 7:15:00 PM 6.9435 8.7144
7/10/2021 7:30:00 PM 6.9479 8.7074
7/10/2021 7:45:00 PM 6.9525 8.7157
7/10/2021 8:00:00 PM 6.9558 8.591
7/10/2021 8:15:00 PM 6.9598 8.6252
7/10/2021 8:30:00 PM 6.9615 8.662
7/10/2021 8:45:00 PM 6.9608 8.7
7/10/2021 9:00:00 PM 6.9642 9.2516
7/10/2021 9:15:00 PM 6.9695 9.4222
7/10/2021 9:30:00 PM 6.9703 9.3505
7/10/2021 9:45:00 PM 6.969 10.3627
7/10/2021 10:00:00 PM 6.9471 21.1753
7/10/2021 10:15:00 PM 6.9642 13.2796
7/10/2021 10:30:00 PM 6.9751 12.287
7/10/2021 10:45:00 PM 6.9789 11.8864
7/10/2021 11:00:00 PM 6.9779 11.7237
7/10/2021 11:15:00 PM 6.9751 11.4024
7/10/2021 11:30:00 PM 6.9723 11.1568
7/10/2021 11:45:00 PM 6.9706 11
7/11/2021 12:00:00 AM 6.9626 11.1467
7/11/2021 12:15:00 AM 6.9575 11.3841
7/11/2021 12:30:00 AM 6.9526 11.061
7/11/2021 12:45:00 AM 6.9465 10.9948
7/11/2021 1:00:00 AM 6.9409 10.7766
7/11/2021 1:15:00 AM 6.9352 11.094
7/11/2021 1:30:00 AM 6.9303 11.0173
7/11/2021 1:45:00 AM 6.9256 10.9314
7/11/2021 2:00:00 AM 6.92 10.8145
7/11/2021 2:15:00 AM 6.914 11.3709
7/11/2021 2:30:00 AM 6.9094 11.2923
7/11/2021 2:45:00 AM 6.9048 10.8001
7/11/2021 3:00:00 AM 6.903 11.6304
7/11/2021 3:15:00 AM 6.8991 11.3374
7/11/2021 3:30:00 AM 6.8946 11.4151
7/11/2021 3:45:00 AM 6.89 11.2407
7/11/2021 4:00:00 AM 6.8887 11.2564
7/11/2021 4:15:00 AM 6.8853 11.66
7/11/2021 4:30:00 AM 6.8842 12.3547
7/11/2021 4:45:00 AM 6.8782 11.9825
7/11/2021 5:00:00 AM 6.845 11.1516
7/11/2021 5:15:00 AM 6.8362 10.6082
7/11/2021 5:30:00 AM 6.8445 10.5981
7/11/2021 5:45:00 AM 6.8474 10.7
7/11/2021 6:00:00 AM 6.8458 10.5988
7/11/2021 6:15:00 AM 6.8455 10.3627
7/11/2021 6:30:00 AM 6.8451 10.0961
7/11/2021 6:45:00 AM 6.8412 9.5125
7/11/2021 7:00:00 AM 6.8375 9.4516
7/11/2021 7:15:00 AM 6.8355 9.615
7/11/2021 7:30:00 AM 6.8354 9.4386
7/11/2021 7:45:00 AM 6.8314 9.2764
7/11/2021 8:00:00 AM 6.8291 9.4347
7/11/2021 8:15:00 AM 6.8254 9.9757
7/11/2021 8:30:00 AM 6.822 9.7099
7/11/2021 8:45:00 AM 6.818 9.6
7/11/2021 9:00:00 AM 6.8181 9.0394
7/11/2021 9:15:00 AM 6.8163 9.7279
7/11/2021 9:30:00 AM 6.8208 9.8581
7/11/2021 9:45:00 AM 6.8144 9.4729
7/11/2021 10:00:00 AM 6.8098 9.5206
7/11/2021 10:15:00 AM 6.8037 9.0638
7/11/2021 10:30:00 AM 6.7996 8.848
7/11/2021 10:45:00 AM 6.7964 8.8513
7/11/2021 11:00:00 AM 6.7943 8.5632
7/11/2021 11:15:00 AM 6.792 8.6084
7/11/2021 11:30:00 AM 6.792 8.5818
7/11/2021 11:45:00 AM 6.7886 8.4
7/11/2021 12:00:00 PM 6.7893 8.1745
7/11/2021 12:15:00 PM 6.7872 8.1756
7/11/2021 12:30:00 PM 6.7868 8.002
7/11/2021 12:45:00 PM 6.7873 7.9727
7/11/2021 1:00:00 PM 6.7878 7.8878
7/11/2021 1:15:00 PM 6.7871 7.9423
7/11/2021 1:30:00 PM 6.7869 7.8824
7/11/2021 1:45:00 PM 6.7831 7.7717
7/11/2021 2:00:00 PM 6.7866 7.6516
7/11/2021 2:15:00 PM 6.787 7.6995
7/11/2021 2:30:00 PM 6.7871 7.6894
7/11/2021 2:45:00 PM 6.787 7.9278
7/11/2021 3:00:00 PM 6.789 7.9148
7/11/2021 3:15:00 PM 6.7911 7.6932
7/11/2021 3:30:00 PM 6.792 7.662
7/11/2021 3:45:00 PM 6.7958 7.4573
7/11/2021 4:00:00 PM 6.7981 7.4668
7/11/2021 4:15:00 PM 6.8015 7.3454
7/11/2021 4:30:00 PM 6.8018 7.4291
7/11/2021 4:45:00 PM 6.801 7.4565
7/11/2021 5:00:00 PM 6.7972 7.6795
7/11/2021 5:15:00 PM 6.7965 7.8337
7/11/2021 5:30:00 PM 6.7965 8.7227
7/11/2021 5:45:00 PM 6.7942 8.5
7/11/2021 6:00:00 PM 6.7987 7.464
7/11/2021 6:15:00 PM 6.8039 7.4924
7/11/2021 6:30:00 PM 6.8023 7.3365
7/11/2021 6:45:00 PM 6.8042 7.4611
7/11/2021 7:00:00 PM 6.8117 7.8107
7/11/2021 7:15:00 PM 6.8173 8.1287
7/11/2021 7:30:00 PM 6.8221 8.5679
7/11/2021 7:45:00 PM 6.8262 8.6027
7/11/2021 8:00:00 PM 6.8256 8.684
7/11/2021 8:15:00 PM 6.8261 8.6529
7/11/2021 8:30:00 PM 6.8215 9.2233
7/11/2021 8:45:00 PM 6.8222 9.8
7/11/2021 9:00:00 PM 6.8264 14.1568
7/11/2021 9:15:00 PM 6.8307 16.2344
7/11/2021 9:30:00 PM 6.8301 18.8464
7/11/2021 9:45:00 PM 6.8248 20.8063
7/11/2021 10:00:00 PM 6.8207 26.5292
7/11/2021 10:15:00 PM 6.8217 37.5772
7/11/2021 10:30:00 PM 6.8224 56.5224
7/11/2021 10:45:00 PM 6.8179 76.1844
7/11/2021 11:00:00 PM 6.8118 105.7602
7/11/2021 11:15:00 PM 6.8058 139.66
7/11/2021 11:30:00 PM 6.7985 172.0498
7/11/2021 11:45:00 PM 6.7984 186.9999
7/12/2021 12:00:00 AM 6.7848 214.9899
7/12/2021 12:15:00 AM 6.7745 241.1606
7/12/2021 12:30:00 AM 6.7644 261.7673
7/12/2021 12:45:00 AM 6.752 261.2975
7/12/2021 1:00:00 AM 6.7402 255.0426
7/12/2021 1:15:00 AM 6.7321 246.5398
7/12/2021 1:30:00 AM 6.72 231.3676
7/12/2021 1:45:00 AM 6.706 218.6097
7/12/2021 2:00:00 AM 6.698 213.1227
7/12/2021 2:15:00 AM 6.6881 208.6051
7/12/2021 2:30:00 AM 6.6805 203.2857
7/12/2021 2:45:00 AM 6.678 200.4001
7/12/2021 3:00:00 AM 6.6679 187.9075
7/12/2021 3:15:00 AM 6.6641 176.5876
7/12/2021 3:30:00 AM 6.6599 161.9787
7/12/2021 3:45:00 AM 6.6566 148.4617
7/12/2021 4:00:00 AM 6.657 131.0934
7/12/2021 4:15:00 AM 6.6563 117.0403
7/12/2021 4:30:00 AM 6.6587 103.7224
7/12/2021 4:45:00 AM 6.6613 91.4526
7/12/2021 5:00:00 AM 6.6629 79.1043
7/12/2021 5:15:00 AM 6.6667 70.0533
7/12/2021 5:30:00 AM 6.6707 61.8924
7/12/2021 5:45:00 AM 6.6724 58.5
7/12/2021 6:00:00 AM 6.675 50.345
7/12/2021 6:15:00 AM 6.6769 43.6653
7/12/2021 6:30:00 AM 6.6801 38.806
7/12/2021 6:45:00 AM 6.6833 34.2893
7/12/2021 7:00:00 AM 6.6864 30.8286
7/12/2021 7:15:00 AM 6.6875 27.9487
7/12/2021 7:30:00 AM 6.6907 25.5182
7/12/2021 7:45:00 AM 6.6911 22.3089
7/12/2021 8:00:00 AM 6.6936 19.9472
7/12/2021 8:15:00 AM 6.6962 18.1796
7/12/2021 8:30:00 AM 6.6997 17.1663
7/12/2021 8:45:00 AM 6.7004 20.7
7/12/2021 9:00:00 AM 6.7006 19.3412
7/12/2021 9:15:00 AM 6.7062 18.8449
7/12/2021 9:30:00 AM 6.7098 18.1718
7/12/2021 9:45:00 AM 6.709 17.4435
7/12/2021 10:00:00 AM 6.7075 17.016
7/12/2021 10:15:00 AM 6.7094 16.8889
7/12/2021 10:30:00 AM 6.7106 17.078
7/12/2021 10:45:00 AM 6.7145 16.9006
7/12/2021 11:00:00 AM 6.7149 17.7804
7/12/2021 11:15:00 AM 6.7152 17.6361
7/12/2021 11:30:00 AM 6.7154 17.9191
7/12/2021 11:45:00 AM 6.7116 18.9999
7/12/2021 12:00:00 PM 6.7108 47.5274
7/12/2021 12:15:00 PM 6.7098 49.679
7/12/2021 12:30:00 PM 6.7101 51.0058
7/12/2021 12:45:00 PM 6.7097 53.01
7/12/2021 1:00:00 PM 6.706 54.2578
7/12/2021 1:15:00 PM 6.7006 52.9568
7/12/2021 1:30:00 PM 6.6954 51.3607
7/12/2021 1:45:00 PM 6.6894 49.6147
7/12/2021 2:00:00 PM 6.6859 49.699
7/12/2021 2:15:00 PM 6.6855 46.1817
7/12/2021 2:30:00 PM 6.6854 44.6284
7/12/2021 2:45:00 PM 6.6858 43.3039
7/12/2021 3:00:00 PM 6.6887 41.7816
7/12/2021 3:15:00 PM 6.6925 40.1225
7/12/2021 3:30:00 PM 6.6979 38.7129
7/12/2021 3:45:00 PM 6.7056 38.5206
7/12/2021 4:00:00 PM 6.7115 39.2218
7/12/2021 4:15:00 PM 6.7149 43.7808
7/12/2021 4:30:00 PM 6.7139 48.9026
7/12/2021 4:45:00 PM 6.7077 55.1144
7/12/2021 5:00:00 PM 6.6992 66.3116
7/12/2021 5:15:00 PM 6.6871 83.5324
7/12/2021 5:30:00 PM 6.6733 104.9609
7/12/2021 5:45:00 PM 6.664 119.4999
7/12/2021 6:00:00 PM 6.6374 178.1992
7/12/2021 6:15:00 PM 6.6158 223.802
7/12/2021 6:30:00 PM 6.5933 272.3146
7/12/2021 6:45:00 PM 6.5683 310.2508
7/12/2021 7:00:00 PM 6.5449 339.2893
7/12/2021 7:15:00 PM 6.5276 352.9627
7/12/2021 7:30:00 PM 6.5113 360.2623
7/12/2021 7:45:00 PM 6.4981 363.6314
7/12/2021 8:00:00 PM 6.4962 611.6605
7/12/2021 8:15:00 PM 6.5236 827.9293
7/12/2021 8:30:00 PM 6.5488 827.9348
7/12/2021 8:45:00 PM 6.5548 828
7/12/2021 9:00:00 PM 6.5738 827.9329
7/12/2021 9:15:00 PM 6.5716 827.9289
7/12/2021 9:30:00 PM 6.5629 827.9241
7/12/2021 9:45:00 PM 6.5496 827.9233
7/12/2021 10:00:00 PM 6.5365 827.9146
7/12/2021 10:15:00 PM 6.5219 827.9329
7/12/2021 10:30:00 PM 6.5074 827.9237
7/12/2021 10:45:00 PM 6.4923 861.4174
7/12/2021 11:00:00 PM 6.4773 719.7602
7/12/2021 11:15:00 PM 6.4583 675.5564
7/12/2021 11:30:00 PM 6.4395 723.6018
7/12/2021 11:45:00 PM 6.4274 756.4002
7/13/2021 12:00:00 AM 6.3977 963.0633
7/13/2021 12:15:00 AM 6.3782 1000.036
7/13/2021 12:30:00 AM 6.3598 1000.031
7/13/2021 12:45:00 AM 6.3453 1000.029
7/13/2021 1:00:00 AM 6.3324 1000.035
7/13/2021 1:15:00 AM 6.322 992.1961
7/13/2021 1:30:00 AM 6.3134 871.1883
7/13/2021 1:45:00 AM 6.3083 768.4579
7/13/2021 2:00:00 AM 6.3032 709.2461
7/13/2021 2:15:00 AM 6.2997 638.7279
7/13/2021 2:30:00 AM 6.2984 588.3151
7/13/2021 2:45:00 AM 6.3 565.983
7/13/2021 3:00:00 AM 6.2974 493.8985
7/13/2021 3:15:00 AM 6.2971 453.2741
7/13/2021 3:30:00 AM 6.2981 417.6171
7/13/2021 3:45:00 AM 6.2985 384.9643
7/13/2021 4:00:00 AM 6.2982 358.5745
7/13/2021 4:15:00 AM 6.2979 331.6038
7/13/2021 4:30:00 AM 6.2984 309.1142
7/13/2021 4:45:00 AM 6.3017 288.6584
7/13/2021 5:00:00 AM 6.3029 272.1992
7/13/2021 5:15:00 AM 6.3028 259.8874
7/13/2021 5:30:00 AM 6.303 244.7615
7/13/2021 5:45:00 AM 6.3028 238.7
7/13/2021 6:00:00 AM 6.3036 225.1725
7/13/2021 6:15:00 AM 6.3057 219.2138
7/13/2021 6:30:00 AM 6.3068 213.7077
7/13/2021 6:45:00 AM 6.3072 210.19
7/13/2021 7:00:00 AM 6.3072 205.9951
7/13/2021 7:15:00 AM 6.3077 200.5988
7/13/2021 7:30:00 AM 6.3077 196.3296
7/13/2021 7:45:00 AM 6.308 193.266
7/13/2021 8:00:00 AM 6.3082 185.5928
7/13/2021 8:15:00 AM 6.3101 178.9774
7/13/2021 8:30:00 AM 6.3114 171.3627
7/13/2021 8:45:00 AM 6.3154 167.5
7/13/2021 9:00:00 AM 6.3131 159.6273
7/13/2021 9:15:00 AM 6.3139 151.1528
7/13/2021 9:30:00 AM 6.3165 142.8596
7/13/2021 9:45:00 AM 6.318 137.3077
7/13/2021 10:00:00 AM 6.3182 133.5734
7/13/2021 10:15:00 AM 6.3227 127.1255
7/13/2021 10:30:00 AM 6.323 124.0082
7/13/2021 10:45:00 AM 6.3244 123.1583
7/13/2021 11:00:00 AM 6.328 115.7305
7/13/2021 11:15:00 AM 6.3292 100.4429
7/13/2021 11:30:00 AM 6.3329 95.9844
7/13/2021 11:45:00 AM 6.3336 95.9
7/13/2021 12:00:00 PM 6.3369 101.8967
7/13/2021 12:15:00 PM 6.341 99.4523
7/13/2021 12:30:00 PM 6.3418 96.2585
7/13/2021 12:45:00 PM 6.3418 93.4656
7/13/2021 1:00:00 PM 6.3451 91.8787
7/13/2021 1:15:00 PM 6.3443 89.041
7/13/2021 1:30:00 PM 6.3457 86.334
7/13/2021 1:45:00 PM 6.3458 85.4188
7/13/2021 2:00:00 PM 6.347 84.1541
7/13/2021 2:15:00 PM 6.3468 82.748
7/13/2021 2:30:00 PM 6.3466 81.5347
7/13/2021 2:45:00 PM 6.3468 80.8328
7/13/2021 3:00:00 PM 6.3499 79.0789
7/13/2021 3:15:00 PM 6.3511 79.2752
7/13/2021 3:30:00 PM 6.3492 78.1984
7/13/2021 3:45:00 PM 6.3473 78.3292
7/13/2021 4:00:00 PM 6.3464 77.6663
7/13/2021 4:15:00 PM 6.3464 76.8567
7/13/2021 4:30:00 PM 6.3462 76.5751
7/13/2021 4:45:00 PM 6.3467 75.9807
7/13/2021 5:00:00 PM 6.3465 74.893
7/13/2021 5:15:00 PM 6.3457 73.6144
7/13/2021 5:30:00 PM 6.3429 72.9244
7/13/2021 5:45:00 PM 6.3476 72.9
7/13/2021 6:00:00 PM 6.3446 69.9865
7/13/2021 6:15:00 PM 6.3445 68.6862
7/13/2021 6:30:00 PM 6.3444 67.5915
7/13/2021 6:45:00 PM 6.3432 66.6545
7/13/2021 7:00:00 PM 6.3431 65.7451
7/13/2021 7:15:00 PM 6.3448 65.332
7/13/2021 7:30:00 PM 6.3445 64.0516
7/13/2021 7:45:00 PM 6.3433 61.9862
7/13/2021 8:00:00 PM 6.3421 61.0454
7/13/2021 8:15:00 PM 6.3418 59.1848
7/13/2021 8:30:00 PM 6.3418 58.2422
7/13/2021 8:45:00 PM 6.3434 59.1
7/13/2021 9:00:00 PM 6.3417 57.4078
7/13/2021 9:15:00 PM 6.3397 56.6673
7/13/2021 9:30:00 PM 6.3375 55.9911
7/13/2021 9:45:00 PM 6.3372 55.6935
7/13/2021 10:00:00 PM 6.3371 55.2779
7/13/2021 10:15:00 PM 6.3363 54.7602
7/13/2021 10:30:00 PM 6.3367 57.9403
7/13/2021 10:45:00 PM 6.3368 56.5724
7/13/2021 11:00:00 PM 6.3374 54.4015
7/13/2021 11:15:00 PM 6.3369 51.8186
7/13/2021 11:30:00 PM 6.3383 50.8324
7/13/2021 11:45:00 PM 6.342 50.1
7/14/2021 12:00:00 AM 6.3465 52.319
7/14/2021 12:15:00 AM 6.3545 58.2003
7/14/2021 12:30:00 AM 6.3619 68.0172
7/14/2021 12:45:00 AM 6.3662 77.1497
7/14/2021 1:00:00 AM 6.3678 84.7709
7/14/2021 1:15:00 AM 6.3702 92.4254
7/14/2021 1:30:00 AM 6.3732 99.6883
7/14/2021 1:45:00 AM 6.3761 103.1729
7/14/2021 2:00:00 AM 6.3806 144.3055
7/14/2021 2:15:00 AM 6.3807 100.0152
7/14/2021 2:30:00 AM 6.3807 96.4424
7/14/2021 2:45:00 AM 6.3826 94.8
7/14/2021 3:00:00 AM 6.3805 85.591
7/14/2021 3:15:00 AM 6.3812 78.1456
7/14/2021 3:30:00 AM 6.3796 75.5669
7/14/2021 3:45:00 AM 6.3759 70.9595
7/14/2021 4:00:00 AM 6.3728 66.8683
7/14/2021 4:15:00 AM 6.37 63.0461
7/14/2021 4:30:00 AM 6.3657 61.8752
7/14/2021 4:45:00 AM 6.3651 57.4877
7/14/2021 5:00:00 AM 6.3616 55.9539
7/14/2021 5:15:00 AM 6.3604 54.5947
7/14/2021 5:30:00 AM 6.3575 55.8527
7/14/2021 5:45:00 AM 6.3574 56.5
7/14/2021 6:00:00 AM 6.3516 53.3085
7/14/2021 6:15:00 AM 6.3514 51.9309
7/14/2021 6:30:00 AM 6.3488 50.5636
7/14/2021 6:45:00 AM 6.345 45.7562
7/14/2021 7:00:00 AM 6.3418 43.5381
7/14/2021 7:15:00 AM 6.34 45.6682
7/14/2021 7:30:00 AM 6.337 43.3352
7/14/2021 7:45:00 AM 6.3365 35.1179
7/14/2021 8:00:00 AM 6.3332 34.4253
7/14/2021 8:15:00 AM 6.3314 35.5833
7/14/2021 8:30:00 AM 6.3288 36.3946
7/14/2021 8:45:00 AM 6.3252 37.4
7/14/2021 9:00:00 AM 6.327 37.8666
7/14/2021 9:15:00 AM 6.3259 57.0625
7/14/2021 9:30:00 AM 6.3269 52.2508
7/14/2021 9:45:00 AM 6.3277 18.7953
7/14/2021 10:00:00 AM 6.3272 12.2696
7/14/2021 10:15:00 AM 6.3267 15.8791
7/14/2021 10:30:00 AM 6.3262 12.6917
7/14/2021 10:45:00 AM 6.3266 10.1141
7/14/2021 11:00:00 AM 6.3271 8.7747
7/14/2021 11:15:00 AM 6.327 14.8507
7/14/2021 11:30:00 AM 6.3267 13.6637
7/14/2021 11:45:00 AM 6.3252 13.4
7/14/2021 12:00:00 PM 6.3269 10.4823
7/14/2021 12:15:00 PM 6.3271 8.7942
7/14/2021 12:30:00 PM 6.3273 7.3799
7/14/2021 12:45:00 PM 6.327 16.9443
7/14/2021 1:00:00 PM 6.3277 10.8306
7/14/2021 1:15:00 PM 6.3303 15.4367
7/14/2021 1:30:00 PM 6.3323 12.1551
7/14/2021 1:45:00 PM 6.3343 9.2378
7/14/2021 2:00:00 PM 6.3353 7.7529
7/14/2021 2:15:00 PM 6.3368 12.9771
7/14/2021 2:30:00 PM 6.3402 10.3002
7/14/2021 2:45:00 PM 6.3419 11.6102
7/14/2021 3:00:00 PM 6.3446 9.7613
7/14/2021 3:15:00 PM 6.3465 32.4479
7/14/2021 3:30:00 PM 6.349 28.6115
7/14/2021 3:45:00 PM 6.3567 28.927
7/14/2021 4:00:00 PM 6.364 29.1566
7/14/2021 4:15:00 PM 6.3728 28.4977
7/14/2021 4:30:00 PM 6.385 47.5982
7/14/2021 4:45:00 PM 6.405 169.205
7/14/2021 5:00:00 PM 6.4224 309.4571
7/14/2021 5:15:00 PM 6.4297 401.4832
7/14/2021 5:30:00 PM 6.4301 394.4298
7/14/2021 5:45:00 PM 6.4303 340.1201
7/14/2021 6:00:00 PM 6.4299 267.1395
7/14/2021 6:15:00 PM 6.43 204.0787
7/14/2021 6:30:00 PM 6.4296 169.3574
7/14/2021 6:45:00 PM 6.4297 126.315
7/14/2021 7:00:00 PM 6.4263 98.5243
7/14/2021 7:15:00 PM 6.4246 80.6361
7/14/2021 7:30:00 PM 6.4251 68.6734
7/14/2021 7:45:00 PM 6.4271 60.9057
7/14/2021 8:00:00 PM 6.4289 54.652
7/14/2021 8:15:00 PM 6.429 49.9778
7/14/2021 8:30:00 PM 6.4295 46.4671
7/14/2021 8:45:00 PM 6.4294 44.1016
7/14/2021 9:00:00 PM 6.43 42.1366
7/14/2021 9:15:00 PM 6.4329 40.4716
7/14/2021 9:30:00 PM 6.4338 39.73
7/14/2021 9:45:00 PM 6.4305 68.0697
7/14/2021 10:00:00 PM 6.44 55.7031
7/14/2021 10:15:00 PM 6.4467 47.1738
7/14/2021 10:30:00 PM 6.4491 41.5904
7/14/2021 10:45:00 PM 6.4517 37.9163
7/14/2021 11:00:00 PM 6.4533 37.2587
7/14/2021 11:15:00 PM 6.4541 36.0776
7/14/2021 11:30:00 PM 6.4561 33.5097
7/14/2021 11:45:00 PM 6.458 31.423
7/15/2021 12:00:00 AM 6.4597 31.1651
7/15/2021 12:15:00 AM 6.4633 30.1439
7/15/2021 12:30:00 AM 6.4636 29.6843
7/15/2021 12:45:00 AM 6.4641 27.9158
7/15/2021 1:00:00 AM 6.4676 28.2295
7/15/2021 1:15:00 AM 6.469 28.0083
7/15/2021 1:30:00 AM 6.4693 27.5522
7/15/2021 1:45:00 AM 6.4736 26.6559
7/15/2021 2:00:00 AM 6.4732 26.2097
7/15/2021 2:15:00 AM 6.4755 26.4149
7/15/2021 2:30:00 AM 6.4784 26.8045
7/15/2021 2:45:00 AM 6.4786 26.5842
7/15/2021 3:00:00 AM 6.4782 28.1153
7/15/2021 3:15:00 AM 6.4783 29.4651
7/15/2021 3:30:00 AM 6.4788 30.5879
7/15/2021 3:45:00 AM 6.4791 29.5977
7/15/2021 4:00:00 AM 6.4819 28.6086
7/15/2021 4:15:00 AM 6.4826 27.6372
7/15/2021 4:30:00 AM 6.4814 26.0539
7/15/2021 4:45:00 AM 6.4733 21.6565
7/15/2021 5:00:00 AM 6.4732 19.9954
7/15/2021 5:15:00 AM 6.4739 20.455
7/15/2021 5:30:00 AM 6.4753 20.7286
7/15/2021 5:45:00 AM 6.4773 21.1556
7/15/2021 6:00:00 AM 6.4784 21.5557
7/15/2021 6:15:00 AM 6.4784 21.3064
7/15/2021 6:30:00 AM 6.4781 20.7626
7/15/2021 6:45:00 AM 6.4779 20.0152
7/15/2021 7:00:00 AM 6.4783 20.2519
7/15/2021 7:15:00 AM 6.4784 22.3364
7/15/2021 7:30:00 AM 6.4785 23.7711
7/15/2021 7:45:00 AM 6.4768 23.1417
7/15/2021 8:00:00 AM 6.4776 22.0706
7/15/2021 8:15:00 AM 6.4781 19.6289
7/15/2021 8:30:00 AM 6.4785 18.8032
7/15/2021 8:45:00 AM 6.4764 18.1
7/15/2021 9:00:00 AM 6.4783 17.1369
7/15/2021 9:15:00 AM 6.4784 16.2169
7/15/2021 9:30:00 AM 6.479 15.8173
7/15/2021 9:45:00 AM 6.4782 15.8528
7/15/2021 10:00:00 AM 6.4785 15.881
7/15/2021 10:15:00 AM 6.4784 16.3343
7/15/2021 10:30:00 AM 6.4786 18.3876
7/15/2021 10:45:00 AM 6.4784 20.2519
7/15/2021 11:00:00 AM 6.4785 20.1036
7/15/2021 11:15:00 AM 6.4784 19.7372
7/15/2021 11:30:00 AM 6.4783 19.7641
7/15/2021 11:45:00 AM 6.475 19.7
7/15/2021 12:00:00 PM 6.479 19.6893
7/15/2021 12:15:00 PM 6.4812 19.7116
7/15/2021 12:30:00 PM 6.4831 19.7476
7/15/2021 12:45:00 PM 6.4834 19.3587
7/15/2021 1:00:00 PM 6.4837 19.0413
7/15/2021 1:15:00 PM 6.4837 18.9513
7/15/2021 1:30:00 PM 6.4839 18.9861
7/15/2021 1:45:00 PM 6.4831 18.9522
7/15/2021 2:00:00 PM 6.4832 19.2135
7/15/2021 2:15:00 PM 6.4832 18.6443
7/15/2021 2:30:00 PM 6.4829 18.606
7/15/2021 2:45:00 PM 6.4826 19.277
7/15/2021 3:00:00 PM 6.4829 19.5843
7/15/2021 3:15:00 PM 6.4833 19.0027
7/15/2021 3:30:00 PM 6.4835 18.8874
7/15/2021 3:45:00 PM 6.4851 18.744
7/15/2021 4:00:00 PM 6.4863 18.6581
7/15/2021 4:15:00 PM 6.4874 18.478
7/15/2021 4:30:00 PM 6.4879 18.2653
7/15/2021 4:45:00 PM 6.4879 18.1133
7/15/2021 5:00:00 PM 6.4884 17.9983
7/15/2021 5:15:00 PM 6.4898 17.8669
7/15/2021 5:30:00 PM 6.4918 18.034
7/15/2021 5:45:00 PM 6.4946 17.8
7/15/2021 6:00:00 PM 6.4917 17.6768
7/15/2021 6:15:00 PM 6.4904 25.3599
7/15/2021 6:30:00 PM 6.491 19.6958
7/15/2021 6:45:00 PM 6.4959 16.7484
7/15/2021 7:00:00 PM 6.5004 16.143
7/15/2021 7:15:00 PM 6.5028 15.9683
7/15/2021 7:30:00 PM 6.5023 16.3726
7/15/2021 7:45:00 PM 6.5058 18.493
7/15/2021 8:00:00 PM 6.5072 19.9131
7/15/2021 8:15:00 PM 6.5068 20.4597
7/15/2021 8:30:00 PM 6.5072 19.5437
7/15/2021 8:45:00 PM 6.5044 20.8001
7/15/2021 9:00:00 PM 6.5071 20.2461
7/15/2021 9:15:00 PM 6.5071 16.9653
7/15/2021 9:30:00 PM 6.5074 16.2932
7/15/2021 9:45:00 PM 6.507 18.3603
7/15/2021 10:00:00 PM 6.5073 18.0534
7/15/2021 10:15:00 PM 6.5069 18.5235
7/15/2021 10:30:00 PM 6.5075 16.5864
7/15/2021 10:45:00 PM 6.5076 16.6636
7/15/2021 11:00:00 PM 6.5072 17.4041
7/15/2021 11:15:00 PM 6.5097 18.5723
7/15/2021 11:30:00 PM 6.5104 17.1566
7/15/2021 11:45:00 PM 6.5142 16.6
7/16/2021 12:00:00 AM 6.5122 16.0808
7/16/2021 12:15:00 AM 6.5119 20.1086
7/16/2021 12:30:00 AM 6.5119 20.1459
7/16/2021 12:45:00 AM 6.5146 19.8091
7/16/2021 1:00:00 AM 6.5132 17.1134
7/16/2021 1:15:00 AM 6.5125 18.7099
7/16/2021 1:30:00 AM 6.5108 16.4568
7/16/2021 1:45:00 AM 6.5119 19.9462
7/16/2021 2:00:00 AM 6.517 20.3035
7/16/2021 2:15:00 AM 6.5159 19.8753
7/16/2021 2:30:00 AM 6.5129 20.1853
7/16/2021 2:45:00 AM 6.51 20.5
7/16/2021 3:00:00 AM 6.5133 17.0836
7/16/2021 3:15:00 AM 6.5163 16.8162
7/16/2021 3:30:00 AM 6.5169 20.2976
7/16/2021 3:45:00 AM 6.5104 19.9831
7/16/2021 4:00:00 AM 6.4956 19.099
7/16/2021 4:15:00 AM 6.4963 18.487
7/16/2021 4:30:00 AM 6.4961 18.6622
7/16/2021 4:45:00 AM 6.4972 18.5453
7/16/2021 5:00:00 AM 6.5002 18.5993
7/16/2021 5:15:00 AM 6.5071 18.4753
7/16/2021 5:30:00 AM 6.5104 18.9576
7/16/2021 5:45:00 AM 6.5142 19.4
7/16/2021 6:00:00 AM 6.5122 18.4216
7/16/2021 6:15:00 AM 6.5147 20.3784
7/16/2021 6:30:00 AM 6.5173 20.1031
7/16/2021 6:45:00 AM 6.5172 20.0721
7/16/2021 7:00:00 AM 6.5174 19.8937
7/16/2021 7:15:00 AM 6.5189 19.0102
7/16/2021 7:30:00 AM 6.5215 17.9552
7/16/2021 7:45:00 AM 6.5223 17.7051
7/16/2021 8:00:00 AM 6.5225 17.5951
7/16/2021 8:15:00 AM 6.5261 17.1252
7/16/2021 8:30:00 AM 6.5266 16.9782
7/16/2021 8:45:00 AM 6.5282 16.9
7/16/2021 9:00:00 AM 6.531 16.578
7/16/2021 9:15:00 AM 6.5315 16.5785
7/16/2021 9:30:00 AM 6.5346 15.9576
7/16/2021 9:45:00 AM 6.5369 15.9905
7/16/2021 10:00:00 AM 6.5406 16.3937
7/16/2021 10:15:00 AM 6.542 16.2551
7/16/2021 10:30:00 AM 6.5459 16.0891
7/16/2021 10:45:00 AM 6.5486 16.2112
7/16/2021 11:00:00 AM 6.5515 16.0244
7/16/2021 11:15:00 AM 6.5547 15.5191
7/16/2021 11:30:00 AM 6.5565 15.2896
7/16/2021 11:45:00 AM 6.5576 15.1
7/16/2021 12:00:00 PM 6.5605 15.3563
7/16/2021 12:15:00 PM 6.563 15.1048
7/16/2021 12:30:00 PM 6.5653 14.5506
7/16/2021 12:45:00 PM 6.5657 14.4807
7/16/2021 1:00:00 PM 6.5692 14.2505
7/16/2021 1:15:00 PM 6.5704 14.2929
7/16/2021 1:30:00 PM 6.5747 14.4112
7/16/2021 1:45:00 PM 6.5751 14.2227
7/16/2021 2:00:00 PM 6.5752 14.2829
7/16/2021 2:15:00 PM 6.5754 14.1352
7/16/2021 2:30:00 PM 6.5795 13.841
7/16/2021 2:45:00 PM 6.5793 13.839
7/16/2021 3:00:00 PM 6.5824 13.791
7/16/2021 3:15:00 PM 6.5843 13.2593
7/16/2021 3:30:00 PM 6.5844 13.0491
7/16/2021 3:45:00 PM 6.5852 13.206
7/16/2021 4:00:00 PM 6.5843 12.9312
7/16/2021 4:15:00 PM 6.5855 12.6217
7/16/2021 4:30:00 PM 6.5889 12.6006
7/16/2021 4:45:00 PM 6.5895 12.428
7/16/2021 5:00:00 PM 6.5895 12.1381
7/16/2021 5:15:00 PM 6.5892 12.6629
7/16/2021 5:30:00 PM 6.5895 13.0205
7/16/2021 5:45:00 PM 6.587 13
7/16/2021 6:00:00 PM 6.5895 12.1942
7/16/2021 6:15:00 PM 6.5894 12.0423
7/16/2021 6:30:00 PM 6.5895 12.0101
7/16/2021 6:45:00 PM 6.5896 12.0328
7/16/2021 7:00:00 PM 6.5895 12.5606
7/16/2021 7:15:00 PM 6.5892 13.138
7/16/2021 7:30:00 PM 6.5887 13.8427
7/16/2021 7:45:00 PM 6.5875 13.0662
7/16/2021 8:00:00 PM 6.5864 12.6286
7/16/2021 8:15:00 PM 6.5848 13.0215
7/16/2021 8:30:00 PM 6.5847 13.7164
7/16/2021 8:45:00 PM 6.5828 13.8
7/16/2021 9:00:00 PM 6.5831 14.804
7/16/2021 9:15:00 PM 6.5826 13.9084
7/16/2021 9:30:00 PM 6.5807 13.5335
7/16/2021 9:45:00 PM 6.5797 14.1671
7/16/2021 10:00:00 PM 6.5782 15.7404
7/16/2021 10:15:00 PM 6.5752 15.1134
7/16/2021 10:30:00 PM 6.5748 14.1729
7/16/2021 10:45:00 PM 6.5698 19.6416
7/16/2021 11:00:00 PM 6.5717 15.8868
7/16/2021 11:15:00 PM 6.5751 14.1692
7/16/2021 11:30:00 PM 6.5751 12.5574
7/16/2021 11:45:00 PM 6.5758 12.6
7/17/2021 12:00:00 AM 6.5745 35.1347
7/17/2021 12:15:00 AM 6.5749 17.7251
7/17/2021 12:30:00 AM 6.5748 17.3218
7/17/2021 12:45:00 AM 6.575 17.1451
7/17/2021 1:00:00 AM 6.5743 16.4576
7/17/2021 1:15:00 AM 6.575 16.3602
7/17/2021 1:30:00 AM 6.5743 16.2343
7/17/2021 1:45:00 AM 6.5738 17.6716
7/17/2021 2:00:00 AM 6.572 17.1862
7/17/2021 2:15:00 AM 6.5704 16.4934
7/17/2021 2:30:00 AM 6.5709 16.2058
7/17/2021 2:45:00 AM 6.5716 16.1
7/17/2021 3:00:00 AM 6.5732 18.5655
7/17/2021 3:15:00 AM 6.564 16.9455
7/17/2021 3:30:00 AM 6.5606 15.1201
7/17/2021 3:45:00 AM 6.5607 14.2426
7/17/2021 4:00:00 AM 6.5604 14.3252
7/17/2021 4:15:00 AM 6.5605 14.1401
7/17/2021 4:30:00 AM 6.561 13.9876
7/17/2021 4:45:00 AM 6.5604 14.3508
7/17/2021 5:00:00 AM 6.5614 14.7646
7/17/2021 5:15:00 AM 6.5635 16.5843
7/17/2021 5:30:00 AM 6.5626 16.3721
7/17/2021 5:45:00 AM 6.559 15.8
7/17/2021 6:00:00 AM 6.5638 14.7788
7/17/2021 6:15:00 AM 6.5647 14.5448
7/17/2021 6:30:00 AM 6.5633 14.5571
7/17/2021 6:45:00 AM 6.5644 14.1544
7/17/2021 7:00:00 AM 6.5649 13.8761
7/17/2021 7:15:00 AM 6.5655 13.5282
7/17/2021 7:30:00 AM 6.565 13.505
7/17/2021 7:45:00 AM 6.5652 13.4158
7/17/2021 8:00:00 AM 6.565 12.9474
7/17/2021 8:15:00 AM 6.5654 13.1441